GFSCGP_sfc_temp_021.txt.gz
Temp
61 59 54 56 57 57 56 53 52 55 58 58 54 55 60 60 61 60 61 62 63 65 66 66 65 67 67 66 68 68 69 68 68 67 66 68 66 67 68 68 66 65 66 65
59 54 59 59 58 57 56 52 52 55 57 56 56 57 59 60 58 59 61 62 63 65 66 65 65 64 65 68 68 67 67 65 65 66 65 65 64 66 65 65 65 65 64 64
54 57 59 58 55 54 53 53 51 51 54 55 54 55 56 60 61 62 62 62 63 63 65 66 65 64 63 63 62 64 65 65 64 63 65 65 65 65 66 67 67 67 65 64
57 59 56 55 54 54 49 55 53 51 51 49 52 48 53 54 57 58 59 62 63 65 65 64 64 62 61 60 61 63 63 64 64 63 63 61 61 60 63 62 63 63 63 62
54 55 54 54 54 56 53 54 51 51 49 49 50 50 52 55 53 56 60 60 61 62 61 61 61 61 60 60 60 62 63 63 62 61 61 60 59 60 60 60 59 60 61 61
55 60 58 57 57 56 56 52 50 49 48 43 46 47 47 50 51 55 58 57 55 56 58 59 60 61 61 61 61 61 62 62 62 61 60 58 56 56 57 57 58 59 59 59
52 54 57 58 55 57 55 48 42 41 41 40 46 45 46 51 54 55 54 54 54 55 56 58 59 61 61 60 59 61 61 60 60 59 57 57 56 55 56 57 57 56 56 56
43 44 53 56 54 51 50 48 39 33 34 38 44 41 47 53 55 55 55 55 55 55 56 57 58 59 60 59 60 60 59 59 59 58 57 57 57 57 57 56 55 54 53 52
42 45 54 55 55 55 50 44 48 39 36 35 42 46 52 52 52 53 54 55 54 55 57 58 60 60 59 57 58 57 57 57 59 58 56 56 56 54 54 54 53 52 51 50
47 41 50 53 56 55 53 52 43 41 32 31 40 40 45 48 50 51 51 52 54 55 58 60 61 59 59 59 60 58 58 57 57 57 55 55 54 54 53 51 50 49 49 49
50 45 47 50 48 46 48 46 44 44 39 33 29 40 50 50 51 52 51 51 53 55 57 58 58 59 59 58 58 57 57 56 56 55 53 52 52 51 50 48 48 48 48 49
49 43 39 45 50 52 50 46 44 38 35 37 35 38 52 52 52 52 50 51 54 55 56 56 57 56 56 57 59 58 57 56 55 53 52 52 50 49 48 47 48 48 48 47
50 41 36 41 46 50 46 47 44 41 38 36 32 39 52 52 50 50 52 54 55 54 55 56 56 56 56 57 57 55 54 53 53 52 51 49 47 46 46 45 44 46 44 43
50 42 41 37 42 44 41 43 44 43 35 37 38 43 50 52 51 50 52 54 53 53 53 54 54 55 55 55 53 52 52 51 51 51 50 47 46 46 44 43 43 44 45 45
49 40 41 42 44 42 41 41 42 40 42 36 42 43 48 51 49 51 53 52 52 52 51 51 52 53 52 50 50 51 50 50 50 48 47 46 46 46 46 45 46 46 46 45
45 39 38 35 39 39 36 41 41 41 42 41 42 41 52 51 51 49 50 50 49 47 48 50 50 49 48 48 47 46 46 47 48 47 46 44 43 44 43 42 45 45 44 44
42 38 34 32 35 35 33 39 40 42 43 44 39 48 48 47 48 49 50 49 45 46 48 47 47 47 45 45 44 44 45 46 46 45 46 44 43 44 44 44 43 41 41 41
34 34 33 32 31 28 44 48 48 45 46 48 46 47 49 50 51 51 50 45 45 45 46 46 46 45 45 45 45 44 46 46 45 45 45 45 43 43 42 42 41 40 40 39
41 35 32 30 30 37 43 47 45 42 44 48 45 47 50 51 48 50 46 47 47 46 47 46 45 45 44 44 45 44 44 45 45 43 43 43 41 41 40 39 38 39 38 38
38 36 35 31 28 27 40 47 49 48 37 46 48 47 47 48 36 43 43 43 45 49 48 46 45 44 44 45 45 45 44 41 41 42 42 42 40 39 38 37 37 37 37 36
31 32 32 32 30 35 44 47 49 34 39 48 47 47 46 43 42 41 42 45 48 47 46 45 43 42 43 44 44 43 43 41 42 44 41 40 39 37 37 37 37 36 36 33
35 31 29 29 28 27 46 47 39 47 48 48 48 48 45 40 39 40 45 46 46 46 44 43 41 42 43 44 43 43 42 44 44 41 39 39 38 37 36 36 36 35 34 31
35 40 37 37 37 46 48 48 51 50 45 44 44 40 37 36 40 43 43 45 46 45 45 43 41 41 43 43 43 41 42 42 40 39 38 37 37 36 36 35 34 33 33 30
41 44 38 39 46 48 49 53 49 46 41 41 41 39 40 41 42 43 45 46 45 45 43 42 41 41 40 43 42 42 40 39 38 37 36 36 35 35 35 35 34 32 31 29
44 42 40 39 46 48 48 45 43 40 40 40 43 44 43 43 43 43 44 44 43 42 42 42 40 39 40 42 41 41 40 38 37 35 35 35 34 33 32 32 32 31 31 29
43 42 37 37 48 46 41 41 41 38 40 42 43 43 45 45 43 43 42 42 41 41 42 41 40 40 40 40 39 39 39 37 35 34 34 32 32 32 31 31 30 31 29 29

GFSCGP_sfc_temp_024.txt.gz
Temp
74 74 66 68 69 68 66 63 62 66 68 66 65 67 69 73 75 74 75 75 76 77 78 79 77 78 78 76 77 77 78 77 79 79 77 78 77 78 78 80 77 74 75 74
71 63 67 69 68 66 64 61 61 64 66 64 66 66 69 71 70 72 74 74 76 77 76 75 75 74 74 74 74 75 74 74 75 79 76 75 73 76 75 76 75 75 73 72
66 65 67 66 65 63 63 60 59 59 64 65 65 63 65 68 71 72 73 75 75 73 73 74 73 72 73 71 72 74 74 73 72 73 76 77 77 76 75 74 74 73 70 70
65 67 65 64 61 63 59 63 61 60 60 59 63 57 60 65 66 68 70 71 71 72 74 73 72 71 70 70 72 73 73 73 72 71 72 69 70 68 69 69 71 70 70 69
60 63 63 61 60 63 59 62 60 59 59 59 60 59 58 64 61 64 66 67 68 69 70 70 70 70 70 70 70 71 73 72 71 70 69 68 66 69 69 67 66 67 69 68
64 68 66 64 64 63 64 61 59 60 60 50 56 56 58 61 59 63 65 65 65 67 68 69 71 72 71 70 70 70 71 71 69 68 66 63 62 63 65 65 64 66 66 67
62 62 66 66 63 65 65 59 52 47 48 49 56 54 55 59 61 63 62 64 65 67 68 69 69 70 69 69 69 70 70 69 69 67 67 66 65 64 63 63 63 61 62 63
55 51 61 64 60 57 58 57 48 38 44 50 53 51 55 61 64 64 64 64 65 65 66 67 68 68 69 67 68 68 68 68 68 67 66 66 65 65 64 62 61 60 60 60
53 52 62 61 63 61 57 54 57 46 44 44 55 54 59 61 60 61 62 64 63 64 65 67 69 68 68 68 67 66 67 68 68 66 65 64 63 61 60 60 59 59 58 59
55 50 58 60 63 63 60 60 50 52 37 37 52 50 55 54 58 59 60 61 62 64 65 67 67 66 67 68 68 66 66 66 66 65 64 62 61 61 60 58 57 56 57 56
59 54 54 58 56 54 57 55 54 54 48 40 38 50 60 59 61 58 60 60 61 63 64 64 65 66 66 66 66 66 64 64 64 64 62 60 59 58 58 57 56 55 54 50
57 54 49 52 57 59 58 54 54 46 42 45 43 46 62 62 60 59 59 59 62 63 64 65 65 65 66 65 64 63 62 61 61 61 60 59 58 57 56 54 54 54 51 48
58 51 46 48 54 57 54 55 54 51 47 42 36 47 61 61 59 63 59 62 63 63 65 64 64 64 63 62 61 61 61 59 59 59 58 57 56 55 54 52 50 48 48 48
55 53 49 45 50 53 49 53 54 51 40 44 46 51 59 62 62 62 62 62 63 62 63 63 62 61 61 60 59 59 58 57 57 56 56 55 52 50 49 50 48 50 52 51
57 47 51 53 54 54 51 50 52 49 50 42 48 52 58 61 61 61 60 61 60 61 60 59 57 59 58 57 56 56 55 55 55 54 54 51 52 47 45 43 46 48 51 51
55 47 45 42 50 51 46 51 52 51 51 52 52 50 62 62 62 58 58 59 58 57 56 54 53 56 55 54 54 53 53 53 54 53 52 50 49 49 49 49 48 50 50 50
50 46 41 38 44 43 36 47 50 51 54 52 46 55 59 58 56 57 57 58 57 54 52 52 55 54 54 53 53 52 52 54 53 52 51 50 50 49 49 50 49 48 47 48
41 41 38 35 36 32 49 58 57 52 54 57 57 57 56 57 58 59 60 55 51 48 48 52 54 54 54 54 54 53 54 52 51 49 50 50 49 48 48 48 47 46 46 45
52 42 35 32 36 45 49 53 51 48 48 57 54 55 57 58 57 57 54 48 44 45 50 54 55 54 54 54 54 53 52 53 50 48 46 47 48 47 46 46 45 45 45 44
46 45 41 33 30 30 49 55 55 54 43 55 54 52 51 47 37 45 44 43 44 48 56 55 54 54 54 54 53 51 51 50 49 48 48 49 48 46 45 45 44 44 44 43
34 35 34 35 32 41 55 54 55 37 41 53 54 51 45 41 41 40 42 45 52 55 55 56 55 53 53 53 51 49 50 49 50 50 49 48 47 46 45 44 44 43 42 39
43 35 33 34 31 30 55 53 42 50 54 54 54 50 43 39 39 42 46 49 52 55 56 56 53 53 54 53 51 49 49 52 51 49 48 47 46 45 44 43 43 42 41 36
42 48 46 46 45 57 60 55 58 58 53 48 41 39 40 40 42 48 50 52 54 54 55 54 53 52 52 52 51 48 50 50 48 47 46 45 44 44 44 42 41 39 38 34
53 55 45 46 52 56 57 59 52 50 43 43 42 42 44 45 49 49 52 53 53 53 52 52 51 50 50 52 51 50 49 48 47 45 44 44 43 41 43 42 41 38 34 31
53 54 49 48 52 53 55 51 45 41 41 43 47 48 47 49 49 50 50 51 51 50 51 50 49 48 49 50 50 50 48 46 44 43 41 41 40 40 39 39 38 36 35 31
54 51 43 40 50 46 44 40 41 39 43 48 48 49 52 51 49 50 48 50 50 49 49 48 48 48 48 49 49 49 48 45 43 40 40 40 38 38 37 37 36 33 30 29

GFSCGP_sfc_temp_030.txt.gz
Temp
80 72 68 72 73 73 72 70 68 73 75 71 71 72 74 78 79 77 78 78 77 74 76 76 75 76 76 75 76 76 74 71 72 72 70 69 67 68 69 71 70 70 69 68
74 67 73 76 75 72 71 67 67 71 73 70 71 70 73 75 75 76 75 74 73 73 73 74 73 71 72 72 73 74 73 71 72 71 70 68 67 69 69 70 69 70 68 66
67 70 75 73 71 68 70 66 64 64 70 73 69 66 68 73 75 75 75 76 75 73 71 71 71 70 69 69 70 72 72 71 69 68 71 69 68 67 67 67 67 66 66 66
70 74 71 70 67 68 63 69 67 65 63 57 70 54 64 68 68 71 72 72 73 73 73 72 71 69 68 68 69 71 72 72 70 68 67 64 63 63 63 64 64 64 64 63
66 68 68 67 66 69 64 69 66 65 61 62 64 58 64 68 64 66 68 69 70 71 71 71 70 70 70 68 68 69 71 72 70 68 66 63 61 61 62 61 60 60 60 60
70 76 72 69 70 70 71 67 67 66 62 49 61 60 57 62 65 66 67 69 69 70 70 72 73 73 70 69 68 68 70 71 70 68 66 63 61 60 58 58 57 57 57 57
67 68 72 72 67 71 69 62 50 46 47 46 63 59 58 66 69 68 66 67 69 70 69 70 71 71 71 69 69 69 69 68 68 66 65 63 61 59 58 57 56 55 55 54
59 53 66 71 66 62 64 62 48 39 40 46 62 53 56 67 69 69 70 69 69 69 70 70 70 69 69 68 67 67 67 66 66 64 63 62 60 59 58 58 55 53 53 52
58 57 69 68 70 68 62 56 63 52 52 43 54 58 64 66 65 66 67 69 67 69 69 70 70 69 67 67 66 65 65 66 65 63 61 60 59 58 57 57 55 53 53 54
63 55 65 67 69 68 64 66 52 53 37 38 51 53 51 58 61 65 66 66 67 69 69 69 69 68 68 67 67 64 64 64 63 62 59 59 58 57 56 55 53 51 50 50
66 60 59 65 61 59 61 59 59 58 52 40 38 48 64 62 65 64 66 68 67 67 67 68 68 68 67 66 65 63 62 62 60 59 58 56 56 56 55 53 51 50 49 50
63 60 51 58 66 67 64 59 59 45 45 46 44 45 67 66 66 66 65 66 67 68 68 68 67 65 64 62 62 62 60 59 58 58 57 56 55 55 53 51 51 50 49 50
62 56 47 52 58 63 59 62 61 58 49 42 37 43 68 67 61 64 64 65 65 66 68 66 65 64 63 62 61 60 58 58 57 58 56 55 54 51 49 49 48 47 46 47
58 59 54 46 53 59 54 58 61 57 43 44 45 50 59 62 60 63 64 65 65 66 64 63 63 62 62 61 60 59 58 57 57 57 55 53 50 49 48 48 47 46 46 46
62 51 57 58 59 59 57 57 57 54 55 44 50 53 58 60 62 63 61 61 61 60 60 58 58 58 58 58 58 58 57 56 56 55 54 52 50 49 48 48 48 48 47 47
62 49 49 46 58 57 51 55 56 57 57 57 55 53 63 66 62 59 59 57 57 55 55 55 57 55 55 56 57 57 56 55 55 54 53 53 51 49 48 47 46 47 46 46
56 49 44 39 47 44 38 48 55 57 58 56 47 56 62 57 56 56 56 55 53 52 53 53 53 53 55 56 57 55 55 56 55 54 55 54 51 48 47 48 48 46 44 44
48 46 40 35 37 33 54 62 60 56 58 59 58 60 58 57 58 56 54 51 50 50 51 51 52 53 56 58 57 56 58 55 54 53 53 53 50 48 48 47 46 44 42 40
60 46 38 35 38 46 52 57 53 50 49 59 56 55 55 55 56 51 51 49 49 49 51 52 55 57 58 58 59 58 56 55 54 53 53 52 50 48 47 45 44 42 40 39
56 51 42 36 31 31 50 60 62 59 41 55 53 50 48 50 40 44 49 49 49 51 55 57 58 59 58 58 57 56 55 55 53 53 50 49 49 48 46 44 42 41 40 40
37 38 35 37 33 41 56 60 61 39 41 52 51 47 45 42 44 48 49 49 54 57 58 59 58 56 56 56 55 53 53 52 51 50 49 49 49 47 46 44 42 41 38 35
39 35 33 37 33 32 60 56 41 50 55 51 50 47 46 47 47 49 52 54 55 56 57 57 55 54 55 55 53 52 51 54 52 51 48 46 45 46 46 42 40 39 37 33
46 49 45 44 42 57 58 53 55 54 49 48 47 49 47 48 50 52 52 54 55 55 55 55 53 52 53 54 54 50 50 51 48 46 44 43 45 44 44 40 38 35 35 30
58 62 49 50 56 58 54 54 52 51 47 48 48 49 51 49 51 52 53 53 53 53 53 53 51 50 50 52 52 51 50 48 46 44 42 40 38 39 40 40 38 32 30 28
55 57 53 51 57 58 50 49 47 46 47 48 51 53 52 52 51 52 51 51 51 51 52 51 50 49 49 51 49 50 48 46 42 39 38 37 37 37 35 35 34 32 32 29
56 52 46 44 52 52 46 44 45 45 48 52 52 52 53 53 51 51 49 51 50 48 49 49 49 48 49 49 48 48 46 44 39 35 34 34 33 33 33 32 33 35 33 32

GFSCGP_sfc_temp_033.txt.gz
Temp
68 58 53 57 61 63 61 59 57 57 65 60 57 57 62 63 64 62 62 63 62 63 66 66 66 66 67 64 66 66 66 61 60 60 60 59 60 61 61 62 65 65 63 62
61 54 64 69 66 64 63 59 55 60 65 61 57 55 61 65 63 62 62 61 61 62 63 64 62 60 59 60 62 63 64 63 63 61 60 60 59 61 61 61 62 62 61 61
57 62 70 68 63 61 60 56 55 56 61 60 56 52 58 63 65 67 64 63 63 61 61 63 62 58 59 59 61 63 63 63 61 61 60 60 59 59 58 58 57 58 58 58
61 68 67 64 61 61 54 62 61 59 53 45 56 41 52 58 59 62 61 59 59 61 62 62 60 58 59 58 60 62 63 63 63 62 59 57 54 54 55 55 55 56 56 56
57 60 61 60 60 63 57 62 59 57 51 47 52 45 49 59 55 57 57 59 58 59 60 59 59 60 60 60 60 61 62 62 62 60 59 56 55 55 55 55 54 54 54 54
61 67 63 61 65 64 65 59 58 56 50 37 50 48 45 53 56 57 59 60 60 59 60 61 61 61 59 59 59 60 61 61 60 59 57 56 54 55 53 53 51 51 51 51
60 60 63 66 58 62 59 50 37 36 34 35 52 48 48 56 61 60 58 58 59 59 58 59 60 59 58 58 57 60 59 59 59 58 56 54 54 53 51 50 49 48 48 46
49 45 58 65 59 53 55 52 34 31 30 36 52 42 47 58 61 61 61 59 60 59 61 59 59 58 58 59 58 58 59 60 59 56 55 54 53 52 51 51 50 48 47 44
49 50 61 64 63 60 54 46 55 44 40 33 42 48 55 58 58 63 62 63 58 59 60 59 59 59 58 59 58 56 57 58 56 54 52 52 52 51 50 49 47 45 45 49
56 47 60 62 62 61 57 59 43 41 30 30 40 43 43 50 54 59 59 58 62 60 59 60 59 58 57 57 56 56 56 56 54 53 51 52 50 50 48 46 45 46 45 46
54 50 51 58 54 51 52 50 50 49 39 30 27 36 52 54 56 56 58 60 57 56 59 58 57 58 58 58 56 54 54 53 51 51 51 49 49 49 48 48 46 45 45 44
54 51 40 50 58 60 56 52 52 32 37 35 31 35 56 53 55 57 57 61 59 58 59 58 57 57 56 55 54 52 51 51 50 51 50 49 49 47 45 45 44 43 42 43
53 47 34 43 50 56 51 55 55 50 38 34 26 33 58 60 57 58 57 58 57 57 56 55 55 53 53 55 54 52 52 51 52 51 50 48 47 45 44 43 44 43 42 42
53 51 43 34 44 50 45 51 52 48 30 34 36 42 51 50 51 53 52 53 53 53 53 52 52 52 52 55 54 53 50 50 50 50 49 47 44 45 44 43 43 42 43 42
52 42 47 48 51 51 49 48 49 46 46 35 41 46 51 52 50 51 53 54 52 51 51 51 49 48 49 49 50 51 50 50 50 49 48 46 44 44 44 43 43 43 43 43
54 38 39 37 48 47 43 47 47 49 49 47 47 45 51 52 53 51 51 50 49 48 49 49 49 49 49 50 50 51 50 49 49 48 47 47 45 44 43 42 42 42 42 42
46 38 32 30 39 36 31 41 48 49 50 48 39 46 50 48 47 46 45 47 46 45 46 47 46 47 49 48 52 48 49 49 49 48 48 49 46 46 43 44 43 41 39 38
40 36 32 25 30 22 45 54 52 49 50 50 48 47 48 47 45 45 44 42 44 45 45 45 46 48 49 50 49 48 51 49 47 49 48 47 44 45 45 43 42 40 38 36
50 35 27 28 27 37 45 51 47 44 41 48 45 46 46 46 46 40 46 45 43 43 44 46 49 49 47 47 48 48 47 47 49 44 43 43 44 43 42 41 39 39 38 35
48 40 31 23 19 19 39 51 55 52 32 47 46 43 42 42 32 36 43 44 44 45 47 48 48 48 47 46 47 45 46 46 44 45 43 43 42 42 38 39 39 38 36 34
29 33 26 22 20 31 47 53 54 32 34 44 44 42 39 37 38 41 43 44 46 48 49 49 47 45 45 46 46 46 44 43 45 45 44 42 40 41 41 40 38 38 32 30
31 28 30 32 27 23 53 50 39 42 45 45 43 43 41 40 41 43 45 47 48 47 47 48 45 43 45 46 47 43 42 44 43 43 42 39 39 41 42 36 35 34 30 28
34 39 33 36 33 46 49 47 46 47 43 43 45 45 43 43 43 46 46 45 46 46 45 46 43 44 45 45 44 42 42 42 41 39 38 37 39 39 38 35 32 30 28 23
47 52 38 40 48 47 45 46 47 46 43 44 46 46 46 44 45 44 44 44 43 44 43 45 44 43 43 45 46 42 42 41 39 36 35 36 34 34 33 34 32 25 22 21
45 49 45 41 44 44 44 44 43 43 43 44 48 47 46 45 44 44 42 42 42 41 43 43 42 42 42 44 44 43 41 39 36 34 35 33 31 32 31 31 28 27 26 25
48 45 35 34 46 44 41 42 43 41 43 46 47 46 47 46 43 42 41 41 40 40 42 41 41 41 41 41 41 41 39 37 34 32 33 32 29 28 26 24 26 33 31 32

GFSCGP_sfc_temp_039.txt.gz
Temp
61 55 49 51 53 56 54 50 49 50 57 55 51 51 51 51 52 50 50 52 53 54 55 57 58 59 58 57 58 59 60 59 57 56 56 54 53 53 54 59 60 59 59 57
56 50 56 61 58 57 55 51 48 53 57 56 49 47 50 53 50 51 52 51 52 52 54 56 55 55 55 55 56 56 57 57 56 57 55 55 53 54 54 55 54 54 53 53
52 55 62 60 56 55 51 50 49 50 54 54 50 46 48 52 54 54 54 53 54 53 53 54 54 52 53 54 55 57 56 57 57 56 55 54 54 53 52 51 50 51 52 52
56 60 59 56 55 53 48 55 54 52 47 42 49 36 43 48 49 51 52 50 51 54 55 56 54 53 53 53 54 56 57 57 57 56 55 54 52 50 49 49 49 49 50 50
52 54 55 54 53 55 52 55 52 51 45 42 45 39 41 49 45 47 48 50 52 55 55 55 57 57 55 54 53 54 55 55 55 54 53 52 50 51 52 52 50 50 49 49
55 58 56 55 57 57 57 53 50 46 44 35 44 41 37 42 47 48 50 52 53 55 54 56 55 56 54 53 53 53 55 54 53 52 52 51 51 51 50 49 48 47 46 45
53 53 56 58 52 55 53 45 35 34 32 32 45 41 41 49 52 52 50 51 52 53 52 53 54 56 57 54 54 53 52 51 52 52 51 50 49 48 47 46 45 45 43 42
43 41 52 58 52 49 48 46 32 32 29 34 45 35 42 50 54 54 54 53 54 54 56 57 57 56 55 55 52 52 51 52 51 51 49 48 49 47 46 45 44 43 43 43
44 44 55 56 56 54 48 42 48 36 34 31 36 40 49 50 51 53 54 55 55 54 55 55 53 52 56 54 50 50 51 51 50 49 48 48 47 47 45 45 43 42 42 44
50 42 52 55 56 55 52 53 40 36 28 29 34 36 37 45 48 51 51 52 52 54 53 54 52 53 52 50 50 49 49 49 49 48 48 49 46 46 45 43 42 42 42 42
50 45 46 52 48 45 48 45 43 42 35 28 25 33 45 48 50 50 51 54 49 48 48 49 50 52 53 53 49 48 49 49 48 50 49 46 45 45 43 42 42 41 41 40
48 44 37 43 51 52 48 46 44 30 34 31 28 32 49 47 48 51 50 49 49 50 49 50 51 50 50 49 50 48 47 47 47 47 47 46 45 44 42 41 41 41 40 41
48 41 32 40 46 50 46 47 45 40 34 33 24 31 48 47 46 47 45 46 46 47 47 47 47 47 49 49 48 48 47 46 46 46 45 44 43 42 41 41 41 41 40 41
51 43 39 34 39 43 40 44 44 41 29 32 33 37 40 42 43 44 44 45 45 45 46 46 48 48 48 49 46 46 46 45 45 45 44 43 42 41 40 40 39 39 40 39
48 39 41 41 42 43 43 43 43 41 39 34 37 38 41 43 43 44 45 45 45 44 45 45 45 46 45 44 44 45 44 44 44 43 42 41 41 41 40 39 39 39 39 39
46 36 37 36 40 40 38 42 42 41 41 40 38 36 44 45 45 44 44 44 43 43 45 44 44 44 43 43 43 44 43 43 43 43 42 42 42 41 39 38 38 37 36 37
41 35 32 29 33 34 29 38 43 43 43 43 35 41 43 42 42 41 41 41 40 41 41 42 42 42 42 42 43 42 42 43 42 41 41 41 41 40 39 39 37 35 35 35
36 31 27 24 27 22 41 45 47 43 42 42 41 42 43 42 41 41 40 38 40 41 41 41 42 42 41 41 42 41 43 41 40 40 40 40 39 38 38 37 35 33 33 32
43 31 27 23 25 34 41 44 42 41 40 43 41 41 42 41 39 38 42 42 41 40 40 41 41 41 41 41 41 40 39 39 39 39 38 38 38 37 36 37 38 37 36 34
41 35 29 25 19 19 38 45 50 47 33 44 43 41 40 38 30 35 40 41 40 40 42 41 41 41 39 39 39 38 37 37 37 38 38 38 37 36 35 36 36 33 31 31
30 24 24 16 18 30 41 47 49 32 34 43 44 43 39 36 37 40 41 39 41 42 41 41 39 38 38 39 39 37 36 36 39 38 37 37 36 35 35 34 32 30 30 31
31 26 23 25 18 25 45 45 38 41 40 43 41 41 39 41 41 42 42 41 41 39 38 39 37 37 37 38 37 35 34 38 39 37 36 35 35 35 35 35 34 32 28 27
32 37 32 34 33 43 45 43 42 44 41 41 41 41 43 42 42 43 39 39 39 38 37 38 36 36 37 37 36 34 36 37 35 37 35 32 34 32 32 31 29 29 28 23
42 44 35 37 43 42 45 42 43 43 41 42 43 43 45 43 41 39 39 37 37 37 36 37 36 35 34 36 36 34 35 35 35 34 34 32 32 33 32 31 31 27 22 19
41 43 39 37 41 40 42 42 42 41 42 44 45 46 44 42 39 39 37 36 36 35 36 35 34 34 34 35 34 34 34 34 34 33 34 31 31 31 30 29 28 28 26 24
43 41 35 34 43 42 42 42 41 40 42 44 45 44 42 41 39 37 36 36 35 34 34 34 34 33 33 33 33 33 36 35 33 32 32 30 29 29 28 29 29 31 31 31

GFSCGP_sfc_temp_042.txt.gz
Temp
59 55 50 49 52 54 53 49 47 48 54 53 46 45 46 48 49 47 47 48 50 51 53 54 55 55 57 57 59 60 60 59 59 57 55 54 52 52 52 54 56 55 55 54
54 49 55 56 55 54 52 48 46 50 54 53 46 43 46 49 47 47 47 48 49 50 52 53 53 53 54 55 57 57 56 56 56 56 54 53 51 50 51 51 51 52 51 51
51 52 59 57 54 53 50 48 45 48 49 51 47 43 44 49 50 51 51 50 51 50 50 52 53 52 53 53 54 56 57 57 56 55 53 52 51 50 50 49 48 49 50 50
52 57 56 54 53 51 46 52 51 49 46 41 46 37 41 45 46 48 49 48 49 51 51 51 50 51 52 52 52 54 55 55 55 54 54 52 50 49 48 48 47 48 49 48
49 51 52 52 50 53 49 54 50 48 43 40 43 38 40 45 44 45 46 48 49 51 51 52 52 53 52 52 51 53 54 54 53 53 52 50 49 48 49 48 48 47 46 46
51 55 54 52 54 54 55 50 48 44 42 35 40 39 37 40 44 46 48 50 52 52 52 54 53 54 52 52 51 53 55 53 53 51 51 50 50 49 47 47 46 45 43 43
51 51 54 56 51 53 50 44 33 33 32 31 42 39 40 46 49 50 49 50 51 51 51 52 52 52 54 55 53 54 53 52 52 51 49 48 47 47 46 45 44 44 43 42
41 40 50 56 50 48 45 44 32 32 29 33 42 34 41 48 51 52 53 52 52 51 52 51 55 54 54 52 52 53 52 50 49 49 48 48 48 47 46 45 44 43 42 42
42 42 52 53 53 52 45 40 45 35 33 30 34 39 45 47 47 50 51 51 50 51 52 52 50 50 50 50 49 49 50 50 49 48 47 47 47 46 45 44 42 41 41 44
48 41 49 52 54 53 48 50 39 35 28 28 32 34 36 42 45 48 48 48 51 51 49 48 49 49 49 50 49 48 50 48 48 47 46 48 46 45 44 42 42 41 41 41
47 44 44 49 45 43 46 42 40 39 34 27 23 32 43 46 48 48 49 51 47 46 45 46 47 48 48 48 47 47 48 49 47 46 46 45 44 43 42 41 41 40 40 39
46 42 37 42 48 49 46 43 42 30 33 30 28 31 45 44 48 49 47 46 45 46 45 46 46 49 50 50 50 49 48 47 45 44 44 43 43 42 41 40 40 40 39 39
48 40 33 39 44 47 43 44 41 38 33 31 23 30 46 45 44 44 42 43 44 45 44 44 45 45 48 48 48 48 45 43 44 44 42 42 41 40 39 39 39 39 39 38
49 41 38 34 38 41 39 42 41 40 28 32 32 35 39 41 41 41 42 42 43 43 44 44 44 44 46 47 45 44 44 43 43 43 42 40 39 39 39 38 38 38 38 37
46 38 38 38 39 40 40 40 40 39 38 35 36 36 41 42 41 41 43 43 43 42 43 44 43 45 45 44 44 43 42 42 42 41 40 39 39 39 39 39 38 37 37 36
44 36 36 35 37 37 37 40 40 39 38 38 36 37 43 42 43 42 42 42 42 41 41 42 43 43 42 42 41 42 42 41 41 39 39 40 39 39 38 37 37 36 35 35
39 34 33 29 32 33 29 37 39 40 41 40 35 40 41 39 41 40 40 41 40 41 42 42 40 41 41 41 42 39 39 40 39 39 40 39 39 38 37 37 36 34 33 34
35 32 27 23 26 21 39 43 43 42 42 42 40 41 42 41 41 41 41 39 40 41 42 40 40 40 40 39 39 38 39 38 38 38 38 38 37 36 36 35 35 34 35 35
40 31 25 22 24 34 41 41 40 40 40 43 42 40 41 39 39 39 41 41 40 41 41 40 39 40 38 38 38 37 37 37 37 36 36 36 36 35 35 34 34 34 35 34
39 34 30 20 19 19 37 42 46 45 33 43 42 40 38 38 31 38 40 41 41 41 41 39 39 38 37 37 37 36 35 34 34 36 36 36 36 34 33 33 34 32 30 30
28 24 23 15 16 29 39 44 46 33 35 41 43 41 37 36 39 40 41 42 42 41 40 39 38 36 36 36 36 34 33 32 35 36 35 35 37 34 33 32 32 30 29 30
31 28 27 23 15 25 44 44 39 41 39 42 41 40 39 39 39 41 41 41 40 39 39 38 36 35 36 36 35 32 30 33 34 34 34 34 34 34 34 30 33 33 29 27
32 36 31 33 32 42 44 41 41 42 42 40 40 40 41 40 41 40 40 39 39 39 37 38 36 35 36 35 34 32 32 33 33 33 34 35 35 32 31 32 29 28 28 24
39 41 34 36 41 41 43 43 43 43 42 41 42 42 42 41 41 40 38 37 37 37 36 36 35 33 32 34 34 32 33 33 32 34 32 31 33 30 31 30 30 27 23 20
39 41 37 36 41 40 43 42 42 41 41 42 43 43 42 42 40 39 37 36 36 36 36 35 33 32 31 33 32 32 32 35 33 32 32 30 30 28 28 29 27 28 27 25
40 39 34 34 44 43 43 41 41 40 41 42 42 41 42 41 39 38 37 37 36 34 34 33 32 31 30 31 30 31 36 36 33 31 31 30 27 26 25 24 26 32 31 31

GFSCGP_sfc_temp_045.txt.gz
Temp
64 62 59 61 61 61 59 57 57 59 61 57 53 53 53 55 57 56 57 57 57 57 59 61 62 63 64 65 65 63 59 59 58 59 61 61 61 62 64 66 65 64 64 63
62 56 61 61 61 59 58 56 54 57 58 58 53 51 53 55 53 55 56 56 57 58 60 60 61 63 64 65 65 62 63 60 62 65 67 66 65 64 64 63 61 61 61 61
57 60 62 60 58 58 55 55 54 56 57 57 56 53 52 53 54 55 56 57 58 60 60 59 60 61 62 63 64 66 66 66 66 66 65 64 63 62 62 63 63 60 59 59
59 61 59 58 56 58 53 59 57 56 55 51 55 50 51 52 51 53 55 56 58 59 59 60 60 61 62 63 64 66 65 66 65 64 65 63 66 65 61 61 61 61 58 57
56 58 57 56 56 59 55 58 56 54 52 52 52 52 52 51 49 51 54 56 58 59 61 61 62 63 62 61 62 62 63 63 62 62 62 63 60 60 60 61 58 58 58 57
57 63 61 60 58 59 57 56 54 52 51 45 48 49 52 50 52 53 55 57 58 59 60 62 63 63 62 60 60 61 62 61 60 60 60 60 59 58 60 59 59 58 58 57
55 56 60 61 58 59 58 53 44 42 42 42 47 45 52 54 55 58 56 57 59 60 60 61 61 61 61 61 60 61 62 59 59 59 59 59 58 58 58 58 58 57 57 56
48 47 57 59 58 56 53 53 43 36 37 42 47 44 52 55 57 59 60 60 60 59 60 60 61 62 62 60 61 61 59 58 58 59 58 58 59 61 60 58 58 57 57 57
48 48 59 58 59 59 52 48 52 41 39 39 44 49 54 54 52 56 59 59 58 59 60 61 61 60 60 60 58 58 58 58 58 56 58 58 58 57 57 56 55 55 55 55
52 46 55 58 60 58 56 55 46 44 34 34 41 42 48 49 51 54 56 57 58 58 57 56 57 56 57 57 57 55 55 54 55 57 57 57 55 55 54 54 53 53 53 52
54 50 50 55 53 52 52 49 45 47 42 37 34 44 51 52 55 54 57 57 56 54 53 54 54 56 56 56 56 55 53 53 56 55 54 54 54 53 53 53 52 52 51 52
53 48 44 49 55 56 54 51 49 41 39 37 38 44 52 52 55 55 55 52 52 53 53 54 54 55 56 55 53 51 51 52 53 54 53 53 53 52 52 52 52 51 51 51
52 46 40 45 52 54 51 50 47 44 41 38 36 44 50 50 50 53 51 50 50 51 52 52 53 53 53 51 52 53 51 53 54 54 54 53 52 51 51 50 50 51 49 49
52 46 45 42 46 48 46 47 47 47 39 40 41 46 48 49 48 48 49 50 50 51 51 52 51 52 52 52 51 52 52 52 53 53 52 50 50 49 49 49 49 48 47 46
52 45 45 43 43 46 47 46 45 45 45 43 45 45 51 53 50 49 50 49 48 49 50 50 50 51 51 50 51 51 52 52 51 50 50 49 49 49 49 48 47 47 45 45
48 42 43 41 41 42 43 46 45 45 45 46 44 45 53 50 51 48 47 48 48 48 49 49 49 48 48 49 49 49 49 50 49 48 48 49 48 48 47 46 45 44 44 43
44 41 39 36 37 39 36 43 46 45 46 48 43 52 48 46 47 48 48 48 48 48 48 46 47 48 48 48 48 48 48 48 47 47 48 47 46 45 45 45 45 44 43 42
40 37 34 34 31 31 47 48 48 47 47 48 47 48 49 49 49 50 51 49 47 48 47 47 48 47 48 48 48 46 47 46 45 45 45 45 45 43 44 43 43 43 42 42
44 37 30 33 33 40 46 45 45 44 47 50 50 46 45 45 48 47 49 50 49 48 48 48 49 48 47 46 45 45 45 44 43 42 42 42 43 43 42 42 41 42 40 39
42 40 38 30 32 30 44 48 51 52 41 50 49 45 43 46 42 49 48 48 47 48 48 47 47 46 46 44 44 43 42 41 40 40 41 42 43 41 40 40 40 41 41 39
34 32 33 25 32 37 46 50 52 39 43 46 49 47 44 46 48 46 46 45 47 47 46 46 46 45 44 43 43 41 41 39 40 41 41 41 41 40 41 40 40 40 38 37
37 33 30 27 29 32 48 50 44 49 48 48 47 47 45 44 43 43 45 44 45 44 44 45 44 43 43 43 41 41 39 41 40 40 39 39 39 38 38 39 39 38 35 33
38 42 38 39 40 48 49 49 49 49 48 48 47 47 46 44 43 44 43 43 42 44 44 43 42 41 42 42 41 38 40 40 38 38 36 38 39 39 39 37 37 36 36 33
43 44 41 41 47 45 47 49 49 49 48 49 48 48 47 45 44 43 43 41 41 43 42 42 41 39 39 40 39 39 39 38 38 35 37 38 37 37 37 36 36 35 34 33
44 44 42 41 45 45 48 47 48 47 47 46 47 47 46 44 43 41 39 40 42 41 41 40 38 38 38 38 38 38 38 38 37 35 34 34 34 34 35 36 36 35 36 34
44 43 39 39 47 48 48 45 45 45 45 46 45 43 45 43 40 39 39 42 41 39 39 38 38 37 37 36 36 37 39 39 36 33 33 33 32 34 34 34 35 34 33 32

GFSCGP_sfc_temp_051.txt.gz
Temp
76 69 65 69 73 73 72 70 68 73 77 74 73 72 74 78 78 76 77 76 77 78 78 79 80 81 83 81 79 72 67 70 70 70 71 71 70 70 72 75 74 74 74 73
72 63 71 76 75 73 71 67 66 72 75 73 71 69 72 72 74 76 76 77 77 77 76 76 77 77 77 76 74 69 71 71 75 78 78 76 75 76 78 76 73 73 72 71
65 68 75 73 71 70 70 66 67 67 71 74 72 68 68 74 77 77 79 80 79 77 75 75 76 73 71 69 73 74 77 77 79 79 78 78 77 75 74 73 73 71 71 71
63 70 72 71 70 71 63 72 71 69 66 60 73 56 66 69 69 71 73 75 76 77 76 76 76 75 75 76 78 80 79 79 79 79 77 74 74 71 72 73 74 74 70 70
66 71 71 69 69 72 65 72 71 71 68 62 67 63 62 70 66 68 71 73 75 76 76 75 76 77 78 77 77 78 79 78 77 76 76 74 74 74 74 71 69 70 69 69
65 77 75 73 72 73 73 70 70 70 67 55 64 64 63 67 71 71 72 74 74 75 76 77 78 78 76 75 74 75 76 75 75 74 73 72 70 70 71 70 67 69 69 70
69 70 73 75 69 72 72 66 53 51 53 51 65 61 65 70 72 75 71 72 74 75 75 76 75 76 74 73 73 74 75 73 73 72 71 70 69 67 66 67 67 66 67 67
60 56 69 74 71 67 68 67 55 44 47 54 63 56 65 72 73 75 75 74 74 74 75 76 76 76 75 73 73 74 74 73 72 71 69 69 67 69 68 67 66 65 65 65
60 60 72 71 73 72 66 61 69 58 57 50 60 66 67 71 70 72 73 73 72 73 74 76 76 76 75 74 73 73 73 72 70 67 66 65 66 63 63 65 65 64 64 64
69 58 68 69 72 71 68 72 57 59 43 44 58 60 62 64 67 69 71 71 72 74 74 75 76 74 75 74 73 72 72 70 66 66 64 62 61 65 65 64 63 62 62 62
73 66 62 67 65 66 64 62 64 63 59 47 47 58 71 69 70 69 72 73 73 74 74 75 75 74 74 73 70 68 69 67 66 62 61 59 64 65 64 63 62 61 61 60
71 66 58 62 70 72 70 66 65 53 52 55 52 56 72 72 73 73 73 74 75 76 75 75 73 71 70 69 68 68 66 63 60 59 59 64 64 64 63 62 61 61 59 59
69 62 53 56 63 67 63 67 67 65 59 53 46 55 72 71 70 73 73 75 75 74 73 72 70 68 68 68 66 65 62 58 56 64 64 64 63 62 61 61 60 59 58 57
62 64 59 52 59 66 59 64 66 63 51 53 57 62 66 68 69 71 72 74 73 71 70 69 68 68 68 65 64 62 60 62 64 64 63 62 61 60 60 59 58 57 57 55
67 58 63 64 63 63 63 63 64 60 61 54 60 63 70 72 71 72 73 73 70 68 68 68 67 67 66 64 63 64 62 63 63 61 61 60 60 59 58 57 57 56 55 55
67 57 59 54 61 60 58 63 63 64 64 65 65 64 75 76 74 72 71 70 68 67 68 68 67 66 64 64 62 62 62 61 61 60 58 59 58 56 56 56 55 55 55 55
62 58 53 48 55 55 44 56 62 64 67 65 58 67 71 68 68 69 70 69 67 67 67 66 65 65 64 63 63 60 61 60 58 57 57 56 55 54 54 55 55 54 53 53
59 57 52 46 41 34 61 66 65 62 66 70 69 69 70 69 71 71 72 70 67 67 66 65 65 64 63 62 60 60 60 59 56 55 55 55 54 53 54 53 53 53 53 51
64 57 45 38 46 55 60 64 60 58 60 69 67 69 69 67 66 67 71 71 69 68 67 66 65 63 62 60 59 59 58 58 55 54 53 53 53 52 52 51 51 51 51 49
60 60 52 43 37 34 57 62 65 64 52 67 67 65 64 64 55 64 68 69 67 67 67 65 64 62 58 57 58 56 56 55 53 53 52 53 52 51 50 50 48 48 49 49
45 45 42 44 38 50 64 64 64 48 52 65 67 67 65 62 62 64 67 65 67 66 64 63 59 56 58 56 55 53 54 53 54 53 52 52 52 51 50 49 48 47 47 45
48 44 38 44 34 36 65 62 53 60 65 65 65 66 64 64 59 60 63 62 62 61 58 56 56 54 55 54 53 52 52 55 53 51 50 50 50 50 50 48 48 47 44 40
51 58 54 54 53 63 67 65 66 65 63 64 63 65 63 61 58 60 60 59 58 55 55 56 53 51 52 53 52 49 50 51 50 49 48 48 47 46 47 47 46 43 40 37
61 62 55 54 63 64 65 67 67 67 64 65 64 63 63 62 61 58 58 55 54 53 51 48 46 49 50 52 50 50 50 50 49 47 47 47 44 42 42 44 44 42 39 38
62 60 58 57 63 65 63 62 61 62 61 60 60 61 61 62 59 56 53 51 48 43 43 48 49 49 49 49 49 50 50 49 47 47 47 45 44 40 38 38 39 40 42 40
63 60 53 51 58 58 57 57 58 58 58 59 58 57 59 58 53 50 46 42 41 42 46 48 48 46 48 50 50 50 51 50 47 44 44 44 42 38 37 36 37 38 36 35

GFSCGP_sfc_temp_054.txt.gz
Temp
74 65 60 64 68 70 69 66 65 68 75 71 70 69 71 76 77 72 75 75 75 76 78 78 79 78 78 75 71 66 64 65 65 64 63 65 64 65 65 67 68 68 67 67
66 59 70 72 72 70 70 66 66 71 75 71 70 68 73 75 76 76 76 75 75 75 74 75 75 75 76 73 66 66 68 66 68 70 70 69 67 66 67 67 66 66 66 65
58 56 67 69 70 67 68 62 61 65 71 73 70 66 68 73 77 77 76 77 76 74 72 73 74 72 72 67 67 70 70 70 71 73 71 70 69 66 66 65 64 65 66 66
61 68 65 67 68 70 58 68 65 66 62 56 67 49 59 69 70 73 74 75 75 76 76 75 72 68 68 69 68 71 72 72 74 72 70 67 66 64 64 64 65 65 65 64
62 63 64 66 69 72 60 68 67 69 65 59 56 52 57 66 66 68 72 74 75 76 75 74 71 70 71 71 71 73 74 74 72 72 70 67 67 65 65 65 64 64 63 63
69 72 69 69 72 74 72 66 68 68 64 46 54 53 56 60 66 69 72 73 74 74 74 74 75 75 73 71 70 71 72 72 71 70 69 68 64 62 61 60 59 61 61 61
65 67 75 75 69 73 70 63 50 38 41 47 66 57 58 62 65 70 71 71 73 73 72 72 72 72 71 69 69 70 71 70 69 68 67 65 62 61 61 62 59 58 58 57
57 54 68 74 69 56 60 64 46 39 37 49 59 55 61 72 75 77 75 74 73 72 72 72 72 71 70 69 69 70 70 69 68 66 64 63 63 61 60 59 59 57 56 56
54 56 64 74 75 67 65 59 67 57 58 48 56 64 67 71 70 73 72 72 71 71 71 73 73 71 70 69 68 68 70 69 67 63 62 61 60 59 59 59 58 56 56 59
58 46 61 71 73 73 68 72 56 57 41 40 53 57 56 62 65 69 70 70 70 72 72 73 73 71 71 71 70 68 69 66 63 62 60 59 58 59 59 58 57 56 55 55
67 52 61 68 64 64 63 60 63 62 57 43 41 52 68 67 69 68 70 71 71 71 71 72 73 72 72 68 68 67 67 63 62 59 58 57 57 59 59 57 56 55 54 54
71 65 56 61 72 73 69 64 64 49 50 54 48 51 72 72 71 71 72 73 73 73 73 73 73 70 70 68 66 65 64 62 60 59 57 56 58 59 57 56 56 55 53 53
70 61 49 55 64 68 63 66 66 64 60 50 42 51 72 72 71 73 71 73 73 72 73 73 72 69 68 67 65 64 61 59 59 58 56 58 58 57 55 55 55 54 52 52
64 63 57 49 57 64 59 62 66 63 47 50 51 58 66 68 68 71 71 73 73 72 73 72 69 68 66 66 64 61 59 58 58 59 60 57 56 55 54 53 53 52 52 50
66 56 61 63 65 65 62 62 64 61 61 51 56 59 67 71 69 71 73 72 72 71 71 69 68 66 66 63 61 61 59 59 61 59 58 55 55 55 54 52 52 52 51 51
67 55 58 55 62 62 57 62 62 63 63 63 63 62 73 74 74 71 71 72 70 69 69 69 68 67 65 62 61 61 59 60 59 58 55 55 54 53 51 51 50 50 50 50
62 56 52 45 55 53 42 55 59 62 65 64 56 64 72 69 69 69 69 71 69 69 68 68 67 66 63 62 62 59 60 58 57 55 55 55 53 52 50 51 51 49 47 47
61 57 50 43 40 34 57 68 67 62 64 67 67 69 71 69 70 71 71 69 68 69 68 67 65 64 63 62 60 58 59 57 55 54 53 53 52 50 50 50 49 48 47 45
66 55 44 35 42 52 58 64 61 59 58 67 64 66 68 66 67 66 71 71 69 68 67 66 65 62 61 59 59 58 56 56 54 52 52 52 50 49 49 48 46 45 44 44
63 61 47 41 35 33 56 63 67 66 48 66 66 64 64 64 51 59 67 68 68 69 67 64 62 61 58 57 57 55 53 53 51 52 51 50 50 49 48 46 45 44 42 43
44 43 39 41 36 46 64 65 66 46 49 64 65 65 64 60 58 63 66 66 67 66 64 62 59 56 56 55 53 50 50 51 53 52 50 50 50 48 47 46 45 43 42 40
43 42 36 43 34 34 66 62 53 59 64 64 65 64 60 59 59 62 63 62 62 56 56 57 55 54 53 51 49 49 49 52 51 50 49 48 48 47 47 43 43 44 40 35
49 56 50 49 47 62 67 64 65 66 63 64 62 64 64 61 59 61 59 57 54 54 54 55 51 48 48 50 50 47 47 50 49 48 47 47 48 46 44 41 39 38 37 32
62 64 55 54 63 64 65 66 65 65 62 62 62 61 62 60 61 58 56 54 52 52 47 46 44 45 47 50 50 48 49 49 48 46 45 45 43 42 41 40 38 35 35 31
61 61 58 58 63 65 60 59 60 61 61 61 61 61 60 61 58 55 52 49 46 44 44 46 46 46 47 49 47 48 50 49 46 45 44 42 41 39 36 38 37 35 35 34
64 60 52 50 57 57 55 57 59 58 58 59 57 54 55 55 51 48 44 44 44 43 45 46 48 46 46 48 49 50 50 50 46 42 41 37 35 35 36 36 35 37 36 35

GFSCGP_sfc_temp_060.txt.gz
Temp
62 55 51 54 61 60 59 56 52 56 60 56 54 54 57 60 59 59 60 59 60 60 65 66 68 70 68 63 63 62 60 59 59 57 56 55 54 55 55 56 59 59 58 57
56 48 61 63 61 57 56 53 53 59 60 57 53 53 57 59 62 63 61 61 63 62 65 67 68 66 62 61 61 60 61 60 60 60 57 57 56 55 56 56 57 58 57 56
51 56 63 61 57 56 55 52 52 53 56 57 54 51 55 61 61 61 63 63 63 64 63 64 64 60 60 60 59 60 60 60 61 61 60 57 56 55 54 54 54 56 57 57
54 61 60 55 55 57 48 59 59 56 51 45 54 39 49 57 59 59 60 60 60 62 65 62 60 60 61 60 59 61 61 61 61 60 59 57 54 54 53 53 54 55 57 56
54 55 56 55 57 61 54 60 59 56 49 46 48 43 48 57 55 59 61 60 61 64 64 60 59 60 60 60 60 60 60 60 61 61 59 58 54 54 54 54 54 55 55 55
57 61 61 59 62 62 64 57 53 50 47 39 48 45 45 50 59 60 60 63 62 63 61 61 61 61 60 60 58 59 59 60 61 59 58 56 55 53 53 52 52 54 54 54
55 56 61 63 58 60 57 49 36 34 34 36 51 45 49 55 59 61 60 60 61 61 59 59 58 59 58 58 59 58 59 58 57 56 55 54 53 53 53 52 54 54 53 52
45 44 56 62 57 52 52 49 36 32 31 38 50 42 51 60 62 62 62 59 60 60 61 60 59 58 59 58 57 59 59 56 56 56 54 53 53 52 53 54 54 52 52 50
45 47 57 61 61 59 51 45 51 43 41 36 42 49 56 59 58 58 58 58 56 58 59 59 59 59 58 57 57 57 58 57 56 54 53 52 54 55 52 54 54 52 52 51
53 44 55 59 62 61 56 57 44 41 34 32 39 41 44 52 54 54 55 55 56 57 58 59 60 60 61 61 59 57 58 57 54 53 52 54 55 55 54 52 53 51 51 50
53 49 49 55 53 53 52 49 49 48 40 33 29 39 52 54 57 55 55 58 58 58 59 59 61 61 61 61 59 57 56 54 53 51 51 54 54 54 54 53 50 51 49 47
55 48 41 50 57 58 54 52 50 36 40 38 33 39 56 57 58 58 58 60 60 62 61 61 61 60 59 59 55 55 56 56 54 55 55 54 55 54 53 52 50 49 47 46
55 46 37 43 51 55 50 54 54 48 41 39 29 37 57 57 57 58 56 58 60 60 60 60 60 60 60 58 55 54 54 54 55 55 55 53 53 52 50 49 48 47 46 45
56 49 44 37 45 50 47 52 53 48 33 38 38 45 53 55 56 57 57 57 58 60 61 58 59 60 57 55 54 54 53 54 55 55 54 51 50 49 48 47 45 46 46 45
54 46 49 51 52 52 50 51 51 49 47 40 45 46 53 55 56 57 58 58 56 57 57 56 55 54 52 51 51 52 52 53 52 50 48 46 47 48 46 45 44 45 47 46
54 45 45 43 48 49 46 50 50 50 50 49 49 48 55 55 54 57 59 58 57 56 56 55 54 53 51 50 50 51 50 49 50 48 48 48 46 45 46 44 47 46 46 45
49 45 37 36 42 43 35 45 49 51 51 51 44 50 52 52 55 53 53 58 55 55 55 55 54 53 52 51 52 49 48 48 48 48 48 46 45 45 45 48 46 45 43 42
45 42 36 31 32 26 46 54 54 50 50 51 51 50 52 52 51 52 53 54 55 55 54 53 53 50 49 49 48 48 49 49 48 47 45 45 46 47 46 45 44 42 41 40
52 40 33 30 30 39 48 52 51 48 44 50 50 51 52 52 54 50 53 52 50 49 49 48 48 48 48 48 48 47 46 46 45 43 46 48 46 44 44 42 41 40 39 38
49 43 37 31 27 25 42 52 56 53 36 50 52 50 51 49 37 43 47 50 48 49 48 47 46 46 45 44 46 45 43 44 43 45 46 46 45 44 42 40 39 38 36 37
32 32 30 24 24 33 48 54 54 38 39 51 51 50 48 44 44 45 46 46 47 45 44 45 44 43 43 44 46 45 45 43 47 46 45 45 45 43 42 39 37 35 33 31
38 32 28 29 22 29 52 52 45 46 48 49 49 48 46 45 44 45 46 43 43 42 42 44 43 42 43 47 46 42 43 45 45 45 44 43 42 42 42 37 36 35 31 29
37 42 36 38 36 48 50 51 50 52 49 48 49 50 48 45 44 44 41 41 41 41 41 43 43 44 45 46 46 43 41 43 43 42 41 41 41 40 39 35 33 30 29 26
47 50 42 43 47 46 48 50 51 50 48 48 50 51 49 44 44 40 40 40 40 41 42 45 44 43 43 43 43 43 43 42 42 40 40 39 36 36 35 34 32 29 27 26
46 50 46 41 45 47 48 48 48 46 46 45 45 48 46 44 40 40 39 39 41 42 43 44 43 41 41 42 41 41 42 42 40 38 37 36 34 33 32 33 32 31 32 32
48 47 40 37 48 45 44 45 47 44 43 43 42 40 42 41 40 41 41 41 42 41 43 42 41 40 40 40 40 39 40 39 37 35 35 32 31 32 32 31 33 34 35 34

GFSCGP_sfc_temp_063.txt.gz
Temp
58 53 46 50 54 57 55 50 48 54 57 54 52 51 54 56 54 54 54 57 58 59 63 63 64 63 63 61 61 60 59 58 58 56 55 54 53 53 54 55 57 57 56 56
53 48 57 58 58 56 54 49 49 54 57 56 51 49 53 55 56 57 56 56 58 59 59 61 61 61 60 59 60 58 60 58 58 59 56 56 54 54 54 55 55 56 55 55
49 54 60 58 53 54 52 49 48 50 52 53 51 48 52 56 59 60 60 60 60 60 60 62 62 60 58 58 58 59 59 59 59 58 58 54 54 54 53 52 52 54 55 55
52 57 57 53 54 54 46 55 54 53 48 42 51 39 48 53 57 57 59 58 59 61 63 64 63 58 58 60 59 59 59 59 59 58 57 56 53 52 52 52 52 53 55 55
53 52 53 53 55 57 51 57 55 53 47 43 44 41 46 53 53 57 58 59 59 62 63 62 63 61 60 59 58 58 59 59 60 59 58 55 52 52 51 52 52 52 52 53
54 58 57 56 58 59 59 54 52 48 45 37 44 43 42 47 56 60 61 61 60 58 58 60 61 60 60 59 58 58 59 59 59 58 57 55 53 52 51 50 50 49 49 50
51 53 57 60 53 56 53 46 36 34 33 35 47 43 46 54 56 58 61 61 60 61 56 57 57 59 60 59 58 58 59 57 58 57 55 54 53 52 52 50 49 48 48 50
44 42 54 58 54 50 48 47 36 32 31 36 47 40 48 56 60 58 60 59 59 60 59 58 58 58 59 59 58 58 57 55 55 54 53 52 52 50 50 51 49 50 51 49
42 45 54 57 58 57 48 44 48 40 38 33 39 46 54 56 54 56 53 54 55 57 58 58 58 58 58 57 57 56 55 54 53 52 52 52 54 54 53 53 52 48 49 50
51 44 52 55 58 57 53 54 41 38 32 31 36 38 42 51 52 52 52 53 52 55 57 58 57 57 57 58 57 55 56 55 53 53 56 55 54 54 54 52 50 50 49 49
51 47 46 52 51 50 49 45 45 45 38 32 29 37 49 52 54 54 53 54 54 54 55 57 58 58 59 58 56 56 56 54 52 52 53 54 53 53 52 51 50 48 48 48
52 46 40 48 54 56 53 50 47 35 38 35 33 37 53 54 56 56 56 55 54 56 56 58 58 58 57 56 56 56 55 54 53 53 52 51 51 50 48 48 47 49 45 47
53 43 36 42 49 52 49 50 49 45 39 35 29 36 54 54 55 57 55 54 55 56 56 56 56 57 57 56 52 50 50 49 54 54 53 50 51 47 49 49 47 45 46 45
54 46 44 37 44 49 45 49 49 46 33 37 36 43 51 54 54 55 54 55 54 57 57 56 56 55 53 51 50 50 51 53 53 52 52 50 49 49 47 45 46 45 45 44
52 44 45 47 49 49 49 49 47 45 45 39 44 43 50 53 54 55 56 54 54 54 55 54 53 51 49 49 50 52 52 53 52 52 50 48 47 47 44 45 43 43 46 44
51 43 43 40 45 46 44 49 48 47 47 46 46 45 53 53 52 53 54 55 54 53 54 53 53 50 49 49 50 50 50 49 50 47 45 45 44 45 45 45 44 44 43 42
47 42 36 36 40 40 34 42 47 48 49 48 42 49 49 48 50 48 51 52 53 52 51 51 51 50 49 49 50 48 46 47 46 44 44 45 46 46 45 46 45 42 40 40
44 40 34 30 32 25 45 50 50 47 47 48 47 46 48 48 47 46 46 49 50 50 49 49 49 48 47 46 46 45 46 45 44 43 44 45 44 45 45 44 42 40 39 38
48 38 31 30 30 38 46 49 47 46 45 47 47 47 48 48 47 47 46 46 44 44 44 44 45 45 45 45 45 45 43 43 43 44 44 45 45 44 43 41 39 38 37 36
46 41 36 27 26 26 42 49 53 51 37 50 49 47 47 46 39 42 43 43 42 43 44 43 43 44 43 43 45 44 41 43 42 45 46 45 45 42 41 40 38 36 35 35
32 31 30 24 24 34 46 52 52 37 39 49 50 48 46 45 42 41 42 41 42 42 42 43 43 42 42 44 45 42 42 43 45 45 45 44 44 42 40 38 36 35 33 31
38 32 27 26 22 30 50 49 44 45 45 48 47 46 42 40 40 40 40 40 40 40 41 43 42 42 41 43 44 42 41 43 44 44 43 42 41 40 40 36 35 34 31 29
38 41 36 38 37 47 49 49 48 49 47 47 47 45 44 41 40 40 38 38 39 40 40 42 42 44 44 45 45 41 42 44 42 41 40 39 40 38 37 34 33 31 30 27
45 47 40 42 45 45 46 47 48 48 48 48 47 46 45 41 40 38 38 38 38 38 39 43 44 42 42 43 42 42 41 40 40 38 38 37 34 35 34 33 33 30 29 29
45 47 42 39 42 45 47 45 44 43 44 44 45 45 43 40 38 38 37 37 37 39 42 43 42 41 40 40 37 37 38 37 35 33 33 32 32 31 31 32 31 33 34 33
47 45 40 39 45 45 45 44 44 43 42 42 41 39 41 40 38 39 38 39 42 41 42 41 39 37 36 36 34 35 35 34 32 31 31 30 30 30 30 29 31 35 35 35

GFSCGP_sfc_temp_066.txt.gz
Temp
55 50 45 49 51 53 53 48 46 49 55 52 51 51 52 54 53 53 53 54 55 58 62 62 61 61 60 59 59 58 57 56 57 56 54 53 53 53 53 57 57 57 56 54
51 46 54 56 54 53 51 49 47 52 54 52 47 49 52 54 55 56 55 54 56 57 57 59 59 58 59 59 59 58 58 57 57 59 54 55 53 53 54 56 56 55 55 54
48 52 57 56 52 50 49 47 45 48 50 49 48 46 49 53 56 57 58 59 58 58 57 58 59 58 58 59 58 59 58 57 58 57 56 54 54 53 52 51 52 53 54 53
50 55 55 52 51 52 44 54 51 48 45 40 47 38 46 51 54 55 57 56 57 58 59 59 59 58 58 59 58 59 58 58 57 57 56 56 54 53 53 51 51 52 53 52
51 50 51 50 52 54 50 54 51 50 45 40 41 39 46 50 50 54 56 57 58 59 59 59 60 60 59 57 57 57 57 58 58 58 57 57 56 52 51 50 51 50 50 51
52 54 55 55 56 56 56 51 49 45 43 36 41 41 41 45 53 57 59 59 59 59 58 60 58 57 56 56 55 56 57 58 58 57 57 57 54 51 49 49 48 48 48 48
48 50 54 57 51 53 52 44 35 33 32 34 44 41 44 51 55 56 57 59 59 59 55 56 55 57 56 57 56 57 58 57 58 57 58 57 53 51 51 49 47 47 47 47
42 40 52 56 54 50 47 46 35 31 31 35 44 38 47 55 56 56 57 59 58 56 57 57 57 57 57 58 58 58 58 58 57 57 57 54 52 51 50 49 48 48 48 49
41 43 51 54 55 54 46 42 48 38 35 32 37 44 53 52 51 52 52 52 53 56 56 57 57 57 57 57 58 58 59 57 56 55 52 51 50 50 50 51 52 50 47 50
49 41 50 53 55 53 50 52 40 37 32 30 34 36 41 50 53 51 50 51 51 54 55 56 56 57 58 58 60 59 57 55 52 51 51 50 50 52 54 51 49 49 48 48
49 45 44 50 49 48 47 44 43 43 36 32 28 36 47 50 53 53 53 53 51 51 54 56 57 57 57 58 56 55 53 52 50 50 50 51 52 50 50 49 49 49 48 46
50 45 38 46 50 52 49 47 45 35 36 34 31 34 51 53 52 52 54 54 52 52 54 55 56 56 55 54 54 54 53 50 48 49 49 48 49 50 49 48 48 47 46 46
51 42 35 41 46 48 46 48 47 42 37 35 28 35 52 52 53 54 54 54 54 52 52 53 54 54 54 53 52 51 48 47 49 50 50 50 50 49 46 47 46 46 43 44
54 44 42 38 42 46 41 46 46 45 32 36 35 41 49 52 52 53 54 52 53 52 52 52 52 52 52 50 49 48 49 50 51 51 52 49 49 48 47 46 45 43 45 45
51 43 43 44 46 47 47 47 45 43 42 38 42 41 48 51 51 53 53 52 51 52 52 52 50 49 47 47 48 49 50 50 52 51 50 47 46 46 46 45 45 45 46 45
48 42 42 39 42 44 41 46 45 46 45 43 43 43 51 51 50 51 51 52 51 51 52 50 50 49 48 47 48 49 48 48 50 48 45 46 46 46 45 43 44 45 45 43
45 41 36 36 39 39 35 41 46 46 46 46 40 46 49 47 47 43 44 47 51 50 50 49 48 47 47 48 48 46 46 48 47 46 46 46 45 45 43 45 45 43 42 41
42 40 35 32 32 25 44 46 47 45 46 47 46 46 48 46 43 42 42 43 46 47 46 46 45 45 45 44 44 44 45 44 45 46 45 45 44 44 44 44 43 41 40 39
47 38 32 32 30 38 43 46 45 44 44 47 45 45 45 45 45 42 42 41 40 41 41 41 42 42 42 42 43 43 44 46 45 44 45 45 45 44 43 41 40 39 37 36
44 41 36 27 26 26 40 46 50 49 38 48 47 45 45 45 39 41 38 39 39 40 40 40 41 42 41 41 44 45 44 45 43 44 45 45 44 43 41 40 39 36 34 34
33 31 30 23 25 34 45 49 50 37 38 46 48 46 45 44 41 37 38 38 39 39 39 41 41 40 41 43 45 41 42 43 45 45 44 44 43 41 41 38 35 34 32 32
39 33 27 26 24 31 49 47 43 45 43 46 47 46 42 38 37 37 38 37 38 38 40 42 41 40 40 41 43 43 42 43 44 43 42 42 41 39 38 34 34 33 31 29
39 43 38 39 38 47 47 48 48 48 47 47 47 44 42 38 37 37 36 37 37 38 38 41 40 40 42 44 41 39 37 39 40 40 38 36 36 34 33 32 31 30 29 28
44 46 40 41 45 45 46 46 46 47 47 46 45 44 43 39 38 36 36 37 37 38 39 40 41 38 37 36 36 36 37 37 36 33 32 31 30 31 30 31 31 28 26 27
44 47 41 39 43 44 46 45 45 43 44 44 43 43 41 39 37 37 36 36 37 38 38 39 37 35 34 35 34 35 34 34 31 31 30 29 29 28 28 30 29 30 30 29
45 44 40 40 49 48 46 44 43 43 42 43 41 39 39 39 37 38 37 38 38 38 38 36 36 35 33 32 31 31 32 30 29 29 28 27 27 27 27 27 27 32 33 34

GFSCGP_sfc_temp_072.txt.gz
Temp
72 67 63 68 70 70 67 64 62 68 71 68 68 69 71 70 69 69 69 70 71 72 74 74 74 74 75 74 74 74 73 73 73 72 73 73 69 67 68 70 71 70 66 71
66 62 70 70 69 66 66 62 62 67 68 65 68 68 73 71 70 72 71 72 73 70 71 73 74 73 73 73 73 74 74 73 74 76 76 75 73 68 69 74 68 70 69 70
64 66 70 68 66 63 65 62 62 62 66 68 65 65 67 72 73 72 73 76 76 75 71 71 73 73 73 73 73 75 76 77 76 77 77 75 74 71 70 70 65 66 66 69
67 72 66 65 64 66 59 68 66 63 61 59 65 55 66 71 69 70 71 74 75 76 77 75 74 75 74 75 77 78 78 77 76 76 75 71 72 70 71 68 67 66 66 70
64 65 63 62 65 67 62 67 65 64 62 61 62 59 66 68 67 71 73 73 76 77 78 78 77 77 78 77 77 77 77 76 75 74 73 72 72 71 67 59 59 65 67 70
69 71 69 68 68 69 67 64 63 63 62 52 60 59 66 68 69 72 76 77 77 77 79 79 80 79 78 76 74 73 74 73 74 72 71 71 70 66 63 58 58 65 69 69
64 65 70 69 65 67 66 61 52 48 49 49 59 57 63 71 73 73 75 76 79 80 79 79 79 78 77 75 73 72 73 73 74 71 70 67 68 66 65 62 62 68 67 66
56 53 65 70 67 64 64 63 53 41 45 51 56 53 65 73 75 76 76 76 77 78 80 79 80 79 78 74 72 73 73 73 73 71 68 68 69 68 67 64 67 68 68 68
56 57 68 68 70 70 61 57 64 53 51 50 57 62 70 73 73 74 75 75 75 76 78 79 80 80 77 75 73 73 74 75 72 68 68 67 67 66 66 65 69 69 70 69
63 54 64 65 68 66 65 69 54 57 42 41 54 55 59 66 69 72 75 76 76 74 76 78 79 79 79 78 77 74 77 76 74 71 68 66 68 68 64 66 68 68 68 65
68 61 57 63 61 62 60 59 60 60 56 46 44 55 69 69 71 71 74 75 76 76 75 76 77 79 78 78 77 75 76 77 75 72 68 65 66 64 63 64 64 64 62 59
68 62 54 59 67 69 68 64 63 52 50 53 50 52 74 73 73 73 74 76 77 76 77 77 77 77 77 76 76 76 75 75 75 72 67 64 61 59 56 56 57 57 53 52
66 58 50 53 59 62 61 64 64 62 57 52 46 53 71 72 72 75 74 76 77 76 77 76 75 74 75 75 74 75 73 72 71 67 62 57 55 55 54 52 52 50 50 52
63 62 56 50 57 64 57 61 63 61 52 53 55 59 68 71 72 75 77 76 76 76 77 77 76 75 74 73 73 72 70 69 65 62 59 56 54 53 51 49 47 46 47 48
65 57 60 62 64 64 62 62 62 59 60 54 59 61 67 71 73 76 76 73 72 74 75 75 76 75 73 71 69 68 64 61 59 58 55 54 53 50 46 45 45 49 52 49
64 57 59 56 61 61 58 62 63 62 63 63 62 62 73 75 75 73 73 70 70 71 72 73 73 72 68 66 66 61 58 58 59 58 55 54 49 46 44 43 48 47 47 52
57 58 53 49 56 55 45 55 61 63 64 63 58 66 73 71 70 71 71 67 66 66 66 67 68 67 66 64 63 59 58 59 57 55 52 50 47 46 49 50 50 49 53 57
56 56 55 47 42 36 58 65 68 64 66 68 67 69 71 71 70 66 63 64 62 62 62 63 64 64 64 65 64 62 61 59 56 54 52 52 50 47 49 54 52 52 56 54
61 57 48 41 45 55 56 56 60 59 61 71 69 70 72 69 63 63 59 58 59 59 60 62 63 63 62 62 62 61 57 54 53 52 50 49 49 50 54 49 52 55 55 54
56 56 52 43 41 37 56 66 68 67 53 72 71 68 67 62 56 67 59 57 57 59 59 59 59 60 60 60 61 56 54 53 51 51 51 54 55 47 52 54 53 55 54 52
43 45 43 46 41 53 61 61 66 50 55 69 70 69 65 61 64 61 57 56 58 58 57 59 59 58 59 60 60 56 54 50 52 53 50 50 53 54 53 52 53 53 52 50
47 44 41 46 37 39 60 59 57 66 64 68 66 67 64 60 54 54 55 54 54 55 56 58 57 57 59 59 56 55 53 53 52 53 53 52 52 50 51 50 51 51 49 46
46 53 52 52 55 65 64 69 69 69 70 65 67 66 64 55 53 53 53 54 54 55 57 57 56 55 55 56 54 52 53 54 52 50 48 48 47 48 48 49 48 47 46 43
56 56 53 54 64 64 64 68 62 66 64 66 66 66 61 57 55 53 53 54 54 55 55 55 53 52 51 53 53 52 51 51 50 47 46 46 44 45 46 48 46 44 42 39
61 59 57 59 64 59 61 62 66 65 64 61 61 64 61 58 55 54 53 53 54 53 53 53 51 49 48 48 48 48 48 48 45 44 43 43 43 42 42 42 40 40 39 35
60 59 53 53 65 62 68 67 64 63 62 62 59 58 61 59 55 54 53 53 52 51 51 50 49 47 46 45 43 44 46 46 43 41 41 38 40 39 39 41 38 31 32 31

GFSCGP_sfc_temp_078.txt.gz
Temp
73 65 60 67 71 71 69 66 65 70 74 70 69 70 73 75 75 72 66 66 64 62 63 63 63 65 63 61 61 62 62 62 61 61 64 66 66 64 64 66 68 68 69 69
67 61 70 74 74 71 69 65 64 70 75 71 69 68 74 74 74 72 70 66 65 65 65 65 67 67 65 63 63 64 65 64 65 65 70 70 69 67 65 67 67 68 68 68
63 68 75 72 70 67 66 63 64 64 71 72 68 64 70 74 76 74 74 72 70 68 65 66 67 67 68 66 66 68 68 68 69 69 71 71 69 66 65 64 66 68 65 64
68 74 72 69 66 69 61 72 70 66 63 56 63 51 65 70 70 74 73 73 72 71 71 69 68 68 69 69 70 71 72 70 71 71 71 69 68 65 66 65 67 67 65 65
65 68 67 66 67 71 65 72 68 67 63 62 60 55 65 71 66 71 73 74 73 75 72 70 71 71 72 71 70 71 73 72 72 71 69 69 66 66 66 66 65 62 62 62
69 78 74 71 74 73 74 69 67 66 62 50 61 59 57 60 68 74 75 76 76 75 75 74 74 74 73 72 70 71 73 73 72 71 70 68 68 67 66 64 62 61 61 61
66 68 75 76 68 73 70 62 49 44 46 47 62 57 62 67 74 77 77 77 77 78 75 73 74 74 73 72 71 72 73 73 74 70 71 69 69 68 67 65 62 60 59 60
56 53 68 74 68 64 64 62 51 39 34 45 56 53 63 75 79 80 80 80 80 78 78 77 75 74 75 73 72 72 73 73 75 71 70 70 70 70 68 66 62 62 62 61
56 57 72 73 73 70 64 57 67 56 56 47 53 56 70 76 76 78 78 80 78 79 79 80 81 77 75 75 74 72 74 75 75 73 70 69 70 69 67 63 63 64 63 63
63 55 69 72 74 72 68 71 55 58 42 40 53 57 50 63 69 74 75 76 78 79 79 80 81 80 78 77 77 74 75 76 75 75 72 70 68 69 67 64 64 63 61 61
67 61 62 70 65 63 63 61 62 62 57 44 41 52 61 65 69 73 76 77 78 79 78 79 80 82 81 79 77 76 75 76 75 75 73 70 68 66 64 63 61 59 57 55
67 62 54 61 71 73 70 64 63 52 51 54 49 51 74 73 74 76 76 79 79 80 80 80 80 81 81 80 78 76 74 74 75 75 73 67 64 63 61 57 56 54 52 52
65 57 49 55 64 68 63 67 67 64 61 53 44 51 74 76 76 76 75 77 78 79 80 80 79 79 79 79 78 76 74 74 76 74 66 63 59 58 56 55 54 53 51 51
59 61 56 49 55 63 58 63 66 63 50 53 54 59 67 71 72 75 75 74 76 79 80 80 79 78 78 77 77 77 73 71 66 66 61 57 56 55 53 52 51 51 51 51
60 53 60 62 64 65 63 62 63 60 62 54 59 60 67 71 73 74 76 76 78 79 80 79 79 77 77 76 75 75 66 63 62 59 56 53 51 51 51 50 50 50 50 49
62 54 58 55 62 63 60 65 64 64 64 64 64 63 74 76 77 75 77 77 77 77 78 78 79 78 76 74 72 65 62 59 58 54 51 51 51 50 50 49 48 47 47 47
53 55 53 46 59 58 48 59 63 65 67 65 58 66 73 72 74 74 75 76 76 77 76 75 75 76 73 65 62 58 57 56 54 51 51 50 49 47 46 47 48 47 46 47
48 50 53 44 44 37 58 69 68 64 66 68 69 71 73 73 76 78 77 74 74 74 73 72 73 70 64 61 58 57 57 54 51 50 49 49 48 47 47 48 48 47 49 49
51 48 39 40 43 53 59 63 63 60 60 70 68 71 73 76 73 73 75 73 71 71 71 71 71 66 63 59 58 54 53 52 51 49 49 49 49 49 49 50 51 51 51 51
52 51 44 41 38 36 54 66 69 68 51 70 71 69 70 73 58 65 68 69 68 69 69 69 68 61 59 58 56 54 51 51 50 51 51 53 53 52 51 51 51 52 52 52
41 41 41 41 39 49 64 67 68 49 51 70 73 72 71 68 66 66 66 66 68 67 67 68 66 63 60 58 57 54 53 53 55 57 55 54 53 53 53 52 51 51 49 45
39 38 39 43 36 37 65 62 55 61 67 71 72 72 69 65 64 64 65 64 65 65 64 65 63 63 63 62 59 56 56 58 57 55 54 55 54 54 54 50 49 49 45 39
43 48 45 51 50 63 63 65 67 69 69 69 72 73 72 63 63 64 63 63 63 64 63 65 63 60 60 61 60 57 56 57 55 54 53 52 52 52 52 49 45 42 42 37
60 62 53 53 59 60 60 59 68 70 67 73 74 72 70 64 64 62 63 63 63 63 63 63 60 58 56 59 59 56 56 55 54 51 49 49 48 47 47 47 44 38 36 34
59 61 58 58 62 63 66 63 68 69 72 70 72 72 70 67 64 64 63 63 62 62 62 61 58 55 54 56 56 56 56 54 51 48 47 45 43 42 39 36 34 32 31 31
63 60 54 52 63 60 63 69 71 68 69 71 69 68 69 69 65 65 63 63 62 60 60 58 56 55 54 53 52 53 53 51 47 45 41 37 36 36 37 34 31 33 31 31

GFSCGP_sfc_temp_081.txt.gz
Temp
63 54 50 53 58 62 61 59 54 57 66 62 60 55 56 60 61 56 53 53 52 55 58 59 59 59 59 59 58 58 56 56 56 55 57 60 61 60 61 62 65 65 65 66
58 53 61 65 65 63 64 57 54 61 68 65 59 58 63 64 60 58 56 55 55 53 56 57 57 59 58 56 57 58 57 56 58 57 60 61 63 62 63 63 63 64 64 63
55 60 67 65 63 61 60 56 56 57 63 62 56 53 59 66 64 62 62 60 59 55 54 56 58 57 56 56 56 59 59 58 60 61 62 63 61 60 61 61 62 63 63 62
58 66 65 63 62 63 54 64 64 61 55 45 55 41 52 60 62 61 61 60 59 59 60 60 60 58 57 57 60 62 63 61 61 63 63 63 63 61 61 60 61 61 61 61
56 59 61 60 62 66 59 66 62 59 53 48 51 46 51 60 58 61 61 61 61 61 61 62 62 62 61 61 61 63 64 64 64 65 63 64 60 63 60 60 60 59 59 60
61 69 67 66 69 67 69 62 59 56 51 40 51 51 47 52 61 64 65 63 63 63 62 63 65 65 64 64 63 65 66 66 66 66 66 63 64 62 62 60 59 58 57 57
58 60 67 71 62 64 62 53 39 36 36 35 52 49 53 62 65 66 66 66 66 66 64 63 63 64 65 65 65 66 66 66 67 66 66 65 63 64 62 61 60 57 57 56
46 44 59 69 64 58 57 54 39 33 29 37 48 43 52 65 70 69 70 71 69 68 67 65 65 66 66 67 66 66 67 67 68 67 66 66 63 65 63 63 61 60 59 58
47 49 65 68 68 65 56 50 58 46 45 39 44 51 62 68 67 67 68 70 67 69 69 68 68 68 69 68 67 67 68 68 69 66 67 66 65 63 63 62 61 59 59 58
55 47 62 66 68 65 61 63 47 46 34 32 46 46 49 56 61 65 65 64 67 68 69 70 70 69 69 69 71 69 69 70 70 70 67 67 65 64 61 60 60 59 59 59
60 53 53 62 59 57 56 54 56 56 46 34 32 40 56 58 62 62 65 67 67 68 69 68 71 72 71 70 69 70 67 69 69 70 67 66 64 62 60 60 59 59 58 56
58 53 45 51 63 68 64 57 56 40 43 43 39 40 61 63 64 65 66 68 67 68 68 69 70 69 72 69 70 70 68 68 70 70 65 65 63 62 60 61 59 56 53 52
56 49 41 47 56 63 59 59 60 55 49 43 33 40 66 66 67 68 65 67 68 68 68 68 69 70 70 70 69 70 68 68 69 64 65 62 61 60 58 56 55 54 52 51
55 51 47 40 48 55 52 58 59 54 40 42 43 49 57 61 62 65 64 66 66 68 70 67 66 68 70 69 69 66 66 67 66 66 60 57 56 56 55 53 52 52 52 50
55 44 50 54 58 58 58 58 57 54 53 49 51 53 59 61 62 64 66 68 68 69 69 68 67 66 67 66 64 66 61 59 58 57 56 54 53 53 52 51 51 51 51 50
52 44 48 47 54 57 55 58 57 59 58 56 55 54 63 65 64 66 68 66 66 68 68 69 69 68 66 63 59 58 56 54 54 52 51 51 51 51 50 50 49 49 48 48
47 43 45 39 51 51 40 52 56 58 61 57 50 56 62 61 64 63 64 68 66 67 66 67 65 63 60 57 55 52 51 53 51 50 50 50 49 48 47 47 47 47 47 47
45 43 42 35 40 33 50 61 62 58 61 61 59 60 61 63 64 63 65 64 65 65 64 63 58 56 54 53 52 51 50 50 50 49 49 48 47 46 47 47 47 46 47 47
50 43 34 32 36 45 51 56 56 56 54 62 60 61 63 64 64 58 63 64 62 61 61 58 56 54 52 51 51 50 49 49 49 48 48 48 47 46 47 46 46 47 47 47
50 47 38 33 31 30 46 58 63 61 43 61 61 60 61 61 48 53 57 59 59 60 59 55 55 54 51 50 51 49 48 48 48 49 48 49 48 48 47 48 48 49 49 49
35 34 31 32 31 38 56 61 62 43 42 61 62 61 60 56 55 57 58 57 59 58 58 55 54 52 51 51 51 48 48 47 51 51 50 50 51 51 50 50 50 48 44 40
37 35 32 33 30 30 60 58 50 53 59 62 60 60 57 56 55 55 57 56 57 56 56 56 54 51 51 51 50 48 49 52 53 52 51 51 50 52 51 48 47 45 40 35
36 41 38 42 40 53 57 55 57 59 58 59 59 61 58 54 55 56 55 55 55 55 55 56 53 52 52 52 52 49 48 51 50 51 50 50 50 49 49 45 42 39 38 35
50 53 46 45 52 56 57 58 60 60 58 63 63 62 60 56 55 55 54 53 54 54 54 53 52 50 49 51 51 50 50 50 49 48 47 46 44 42 42 42 39 35 34 33
49 52 50 49 55 57 59 60 63 63 63 63 63 63 61 57 54 54 53 53 53 53 52 52 49 48 47 49 48 49 50 49 46 43 42 40 38 36 33 33 33 31 30 31
54 50 44 42 55 55 56 59 61 63 62 63 61 62 62 58 55 55 53 53 52 51 51 49 48 44 38 38 38 42 46 44 40 38 37 34 34 33 31 29 29 31 30 31

GFSCGP_sfc_temp_084.txt.gz
Temp
59 51 49 51 53 56 55 53 51 56 63 57 55 54 56 55 55 51 51 54 56 56 58 58 58 58 58 58 58 58 58 57 57 58 58 58 59 60 59 60 62 61 61 62
54 50 59 59 58 56 55 52 52 58 62 58 56 54 56 56 55 55 51 51 54 56 56 56 54 57 58 58 58 59 58 56 57 59 62 62 63 57 58 60 60 62 63 63
51 56 63 59 57 55 55 52 53 54 58 58 53 50 53 58 58 57 55 54 53 54 54 54 55 54 54 56 55 56 57 56 57 58 57 57 57 57 57 58 58 60 63 62
53 61 59 57 56 58 50 60 60 57 51 43 52 39 49 53 53 55 55 53 52 54 56 55 55 56 53 54 55 57 57 57 58 58 58 57 59 58 58 58 60 59 61 61
52 57 56 54 57 61 55 62 59 58 51 45 48 42 48 55 51 52 55 55 54 54 54 54 56 58 56 56 55 56 58 58 59 58 58 58 57 58 58 58 58 59 59 60
55 62 59 59 63 63 66 59 56 53 49 38 45 44 44 48 56 56 58 58 57 56 56 57 59 59 57 58 57 57 58 59 59 59 60 59 59 59 59 60 59 59 59 59
52 55 61 63 56 60 59 50 38 36 36 34 47 45 48 58 60 62 60 59 59 59 58 58 58 58 58 57 57 58 59 59 61 61 61 61 61 60 60 60 60 59 58 57
43 41 55 62 57 54 54 52 37 34 30 36 47 41 49 61 64 65 67 64 62 59 60 59 60 60 60 60 59 60 60 61 62 62 62 63 63 62 63 62 61 60 60 60
42 45 58 63 63 61 53 46 55 43 43 36 42 48 58 61 62 64 62 65 61 61 61 61 62 62 62 61 61 60 62 63 64 63 63 63 63 62 63 61 61 61 61 61
50 42 57 61 63 62 58 59 44 43 33 31 39 42 46 54 59 60 61 61 63 64 63 63 63 63 64 64 63 62 63 64 65 65 65 65 64 63 63 61 60 60 59 58
56 47 48 57 53 52 52 50 50 51 43 34 31 39 52 56 60 60 61 62 63 65 65 65 65 65 66 65 64 63 63 64 65 67 66 65 65 63 62 61 60 60 58 57
54 50 43 48 58 60 57 54 53 41 41 41 37 40 58 59 61 61 61 65 61 65 67 68 67 67 67 66 65 65 63 64 65 66 67 64 63 62 61 60 59 57 56 56
52 46 36 45 51 55 52 55 56 52 47 43 33 39 60 59 62 63 61 63 64 64 63 65 67 67 67 67 66 66 66 65 66 66 64 62 61 60 59 59 58 57 55 53
53 46 47 40 45 51 47 53 58 54 42 43 41 47 54 58 59 62 62 64 63 63 65 63 62 65 68 68 67 66 66 66 65 65 63 62 60 60 59 57 58 56 54 52
51 41 46 49 53 54 53 52 55 54 51 45 49 49 54 58 60 62 64 63 63 65 65 64 63 62 63 63 65 66 65 64 64 63 58 58 56 57 56 55 54 53 52 52
49 41 43 42 50 54 49 54 55 54 54 53 53 51 61 66 59 61 63 63 63 64 63 65 65 63 62 61 60 57 55 55 58 57 54 52 51 52 52 51 50 50 50 50
41 41 40 35 47 49 38 46 51 54 56 54 47 54 58 58 60 61 62 63 63 64 64 63 63 61 59 56 56 54 53 53 53 51 51 50 50 49 48 49 48 48 48 48
40 42 36 30 37 32 44 56 59 56 58 58 58 58 61 61 61 60 61 61 61 61 60 58 54 51 50 51 52 52 52 51 51 50 49 49 48 47 47 47 47 47 47 47
46 42 33 32 31 41 48 52 54 53 52 59 58 61 62 60 57 56 59 58 59 59 58 54 52 50 50 50 51 51 50 50 50 49 49 49 48 47 47 46 46 46 47 46
46 44 36 32 28 27 42 55 59 60 44 60 61 59 59 58 46 52 57 58 56 55 54 51 50 49 49 48 49 49 48 49 48 49 48 48 48 47 46 46 46 47 47 46
32 32 31 31 31 35 49 55 60 42 42 59 62 62 58 55 54 58 57 57 55 54 52 51 50 48 47 48 48 46 46 46 49 49 49 49 49 48 48 47 47 46 43 40
33 31 26 31 27 28 54 54 48 50 56 57 59 58 59 56 54 54 55 55 54 51 50 50 49 47 47 48 47 45 44 47 49 49 47 49 49 50 49 46 44 42 39 35
35 39 34 37 37 50 54 54 55 56 56 57 56 59 57 53 53 54 53 53 52 51 50 51 49 48 48 48 47 45 48 50 49 48 48 48 47 47 46 43 40 38 37 35
46 49 41 42 50 52 54 57 59 59 59 60 59 57 54 53 52 52 52 50 50 51 49 50 49 47 45 46 47 46 47 47 47 44 41 40 38 38 38 38 37 34 33 33
47 49 44 44 51 55 56 58 59 61 61 61 59 58 58 56 53 51 50 50 49 48 48 47 42 38 38 41 44 46 45 43 40 39 38 36 35 34 31 30 31 31 30 31
48 45 41 40 53 52 57 58 59 58 58 59 61 59 56 56 53 52 50 49 48 46 41 38 37 36 35 36 37 40 42 42 38 35 34 32 32 31 31 30 28 31 31 31

GFSCGP_sfc_temp_090.txt.gz
Temp
54 45 43 50 48 49 47 45 43 47 54 50 50 49 55 54 50 50 50 53 52 50 57 58 57 57 57 56 56 56 57 57 59 58 58 57 58 57 57 62 62 62 62 62
48 44 53 54 52 50 48 45 44 49 55 52 50 50 55 52 52 52 51 49 49 50 54 56 56 56 56 56 57 57 57 57 60 59 59 57 58 58 58 59 61 61 61 62
47 50 57 54 49 48 47 46 44 46 51 51 46 45 51 52 52 53 51 51 51 50 51 56 55 55 56 55 56 57 57 57 58 59 58 58 58 57 58 58 58 60 61 60
47 56 54 51 50 51 44 52 51 49 43 37 46 34 45 50 51 51 51 49 50 50 52 54 57 55 55 56 58 58 58 57 59 59 58 58 59 58 62 58 59 59 60 59
45 50 50 49 50 53 49 54 50 49 43 39 42 37 43 47 50 52 51 51 50 51 52 52 57 57 57 57 57 58 57 58 59 58 58 57 57 59 56 57 58 57 58 59
48 54 54 53 57 55 57 51 49 45 42 32 42 40 39 44 50 53 53 52 53 50 51 52 55 57 57 58 56 54 56 55 55 55 54 55 55 53 54 54 54 54 55 56
48 50 53 56 50 53 50 45 33 31 31 32 43 39 44 52 55 56 58 54 53 53 51 51 51 52 54 55 56 55 55 54 55 54 54 54 54 54 56 56 57 54 55 55
39 36 50 55 53 49 48 46 33 30 29 34 42 36 45 55 58 58 59 57 54 52 53 52 52 52 53 54 54 54 54 53 54 54 54 55 55 55 56 56 57 57 58 58
37 38 53 57 58 57 47 41 50 38 36 32 37 42 52 55 58 57 57 54 52 53 53 54 54 54 54 53 53 53 53 54 55 55 55 54 54 55 56 55 55 57 56 58
42 35 49 54 55 56 52 53 41 37 30 29 34 36 41 50 54 56 56 53 53 53 54 55 55 55 56 56 55 54 55 55 56 56 56 56 55 55 56 55 55 57 57 56
42 39 40 49 46 45 45 46 44 45 38 32 30 35 48 53 56 55 57 56 54 54 54 56 57 58 58 57 56 55 55 56 56 57 56 56 56 56 56 56 57 57 57 58
41 37 32 41 52 53 49 47 49 39 35 34 34 40 52 54 54 56 57 59 56 56 55 56 56 57 58 57 56 56 56 56 58 59 60 58 57 57 57 57 58 58 58 58
44 35 30 35 43 48 44 48 50 46 42 40 33 37 54 53 55 57 56 58 57 56 55 55 56 57 58 58 58 57 57 57 58 59 59 59 58 58 57 58 59 59 59 58
45 37 34 30 34 41 39 46 50 48 35 39 41 42 49 54 55 58 58 58 58 58 57 55 55 57 59 59 59 59 59 59 58 58 58 57 58 58 59 59 59 59 58 59
42 31 37 38 40 39 38 44 49 46 45 40 42 45 51 54 55 59 60 58 59 61 59 57 55 57 58 59 59 60 60 59 59 58 57 58 58 58 56 57 57 57 58 58
40 30 37 32 40 41 38 46 48 47 46 44 45 44 54 58 54 56 59 60 60 59 61 61 59 58 57 59 59 59 59 59 58 58 57 58 57 56 55 56 56 57 57 56
36 34 34 30 38 35 33 42 48 48 48 48 41 48 52 54 54 56 59 58 59 60 60 59 60 59 57 55 55 53 53 54 55 56 54 52 53 53 54 54 54 54 54 53
35 34 33 30 33 27 40 50 53 49 51 51 51 53 54 56 59 59 59 59 59 60 59 59 56 51 50 52 52 52 53 52 52 51 51 51 51 51 51 51 51 50 49 49
39 37 31 29 30 34 40 46 46 46 47 53 52 53 56 57 53 55 58 58 59 57 55 52 50 51 52 52 52 52 51 51 50 50 50 50 50 49 48 48 46 47 46 46
41 41 33 31 27 26 39 47 50 53 37 53 53 52 54 55 46 53 57 54 52 52 50 49 50 51 52 51 52 51 50 49 48 48 48 49 48 47 46 46 46 46 44 42
32 34 30 31 30 33 45 48 50 34 38 52 52 54 54 54 57 59 53 50 49 48 48 49 50 49 49 51 51 48 48 46 48 48 48 48 48 46 46 44 43 41 37 35
29 30 30 32 30 28 48 46 38 45 49 52 53 53 54 54 54 53 51 49 48 49 48 48 48 47 47 50 49 46 45 47 48 46 44 44 44 44 43 40 39 37 35 32
30 36 34 35 35 47 49 51 53 53 51 51 53 54 53 55 56 51 49 48 48 48 48 48 47 45 46 47 48 44 45 44 43 42 40 40 40 40 40 38 37 35 34 32
39 44 37 38 45 47 48 52 52 54 53 54 57 55 54 52 51 48 48 48 47 47 45 45 43 42 42 45 45 44 44 43 41 38 36 35 34 34 34 35 34 33 33 32
38 41 40 40 47 50 51 52 53 54 56 55 56 56 56 52 48 49 45 42 42 41 40 40 38 37 37 39 39 40 39 38 33 32 31 31 32 32 30 30 30 30 30 31
41 40 35 35 48 45 47 51 54 51 52 50 52 56 54 51 45 41 38 39 38 37 37 35 34 32 32 33 32 34 35 35 33 31 31 31 31 31 30 29 28 31 31 31

GFSCGP_sfc_temp_093.txt.gz
Temp
56 52 47 54 55 56 54 52 51 55 60 58 59 58 63 68 62 60 60 60 59 59 62 62 60 59 58 58 58 58 57 58 58 58 58 59 59 59 60 61 62 64 65 65
51 47 55 58 55 54 55 52 51 56 60 57 58 58 65 65 65 64 61 60 61 59 59 60 59 58 57 57 59 58 58 57 59 61 59 59 60 60 60 62 63 63 64 64
50 54 58 55 52 50 52 50 51 51 56 58 56 55 60 64 62 61 60 62 62 59 58 60 58 57 57 57 58 58 58 58 59 60 59 57 57 57 61 62 62 66 66 62
52 58 55 52 52 54 48 56 55 53 51 46 56 45 55 63 64 63 60 58 59 59 60 61 61 58 57 58 59 59 59 58 58 60 61 59 58 58 61 63 63 62 64 62
49 52 51 51 52 55 52 57 55 54 49 49 51 47 54 56 59 64 67 59 59 60 60 60 62 62 60 60 59 59 59 59 60 61 60 61 59 61 58 60 63 60 60 60
52 59 56 56 58 57 59 55 54 51 49 40 47 49 51 55 60 65 66 63 60 59 60 61 63 63 61 60 60 59 58 58 58 58 61 62 60 60 61 60 59 60 61 61
50 52 57 58 53 56 55 51 41 38 37 39 49 46 53 59 64 65 67 68 60 61 60 60 60 60 59 58 59 59 59 58 58 58 59 60 61 62 63 64 64 61 62 64
40 39 52 57 56 51 50 50 42 34 36 42 46 43 53 63 67 66 66 67 63 60 60 61 61 60 59 58 59 59 59 60 60 59 60 61 62 63 64 65 66 65 66 66
38 41 55 57 59 59 50 45 55 45 42 40 46 49 58 63 64 64 67 65 64 60 60 62 61 60 60 57 57 57 58 59 60 60 60 60 61 62 63 64 64 64 65 66
42 36 50 55 58 59 55 56 43 44 35 35 42 44 50 57 63 66 66 66 64 61 60 62 62 61 61 60 58 57 58 57 59 61 61 61 61 62 63 62 62 63 64 65
45 40 42 51 49 49 50 49 50 49 43 39 37 44 56 59 65 63 67 65 65 63 62 62 63 63 63 62 60 58 57 59 60 61 61 61 61 61 62 62 62 63 64 65
44 40 34 41 52 55 55 50 51 42 41 42 42 46 60 61 63 62 65 66 66 66 64 63 64 63 62 62 61 61 60 60 61 62 62 61 61 60 61 61 62 63 63 64
44 36 32 39 46 50 45 48 49 49 47 42 37 45 60 59 60 64 64 68 65 64 64 63 63 63 63 63 62 62 61 62 62 62 61 62 60 60 59 61 62 63 63 64
46 39 36 33 36 41 38 42 45 42 38 44 45 49 57 60 60 66 66 67 66 65 65 65 64 64 64 64 64 63 62 63 63 63 62 62 62 62 62 62 62 62 63 64
44 33 37 40 43 43 42 40 43 40 42 40 48 50 56 62 64 67 69 67 65 66 66 65 66 65 64 64 64 64 64 63 63 62 62 62 63 63 63 63 63 63 64 64
38 33 37 34 40 41 39 44 44 44 44 46 50 51 60 64 64 63 65 66 66 68 67 69 67 65 64 64 64 64 64 63 63 62 61 63 62 62 62 62 62 63 63 63
35 33 32 31 40 40 35 42 44 47 50 52 46 55 60 59 60 62 65 65 65 66 66 66 66 65 66 64 64 64 63 63 62 62 62 62 62 62 62 62 62 62 62 61
35 34 32 29 32 26 45 51 51 47 51 56 57 58 60 63 65 66 67 67 66 66 66 66 63 59 58 58 59 58 61 62 61 61 58 58 58 56 56 57 57 54 51 50
40 35 30 28 30 38 45 46 45 41 43 55 56 60 63 65 60 62 65 65 65 65 62 59 58 57 56 54 55 55 54 54 53 53 53 53 53 51 50 49 48 48 46 43
40 39 34 31 26 26 42 50 50 52 40 53 56 56 57 61 52 61 61 58 55 54 53 53 54 53 53 54 55 53 51 50 48 48 48 49 49 48 47 46 44 42 40 38
30 30 27 29 28 37 47 49 53 36 41 50 54 56 55 56 60 60 53 49 49 49 50 52 53 51 52 53 52 49 48 46 48 48 48 47 46 44 44 42 41 39 36 34
33 29 29 31 28 26 50 49 42 43 48 53 55 57 55 58 57 53 51 49 49 48 48 49 49 48 50 50 49 46 44 45 46 45 43 43 43 43 42 39 38 37 35 32
33 40 36 34 34 45 50 50 53 55 51 54 53 57 56 53 53 50 48 47 47 47 47 47 46 45 46 49 48 43 43 44 42 41 39 38 39 39 39 37 36 34 34 31
42 46 40 40 46 48 50 54 54 55 53 57 57 56 54 50 49 48 47 45 44 44 44 44 42 40 39 42 43 43 42 41 40 38 37 36 36 35 36 35 35 33 33 31
45 45 42 41 46 49 52 53 54 54 57 56 58 55 53 50 44 44 42 40 40 40 40 40 38 37 36 37 38 40 40 40 38 37 36 35 33 32 31 31 31 31 30 31
45 44 39 38 48 47 49 52 53 52 49 49 52 55 53 48 43 40 37 38 38 36 37 36 36 35 34 35 36 38 39 39 37 35 34 33 33 33 32 31 30 31 31 31

GFSCGP_sfc_temp_096.txt.gz
Temp
63 58 55 62 64 65 65 61 61 67 70 65 67 69 74 79 80 78 78 78 77 75 76 73 70 68 62 63 62 59 60 61 61 60 59 59 59 61 61 62 62 63 66 69
58 54 65 67 65 63 62 58 59 66 70 66 66 67 73 77 78 79 79 78 77 76 73 70 68 67 63 63 63 60 59 61 61 61 59 60 61 60 61 61 62 63 65 70
52 61 66 63 60 57 59 57 58 59 67 68 65 63 68 76 77 77 77 79 79 77 73 70 66 62 62 61 64 63 63 59 61 61 59 58 59 60 60 60 61 62 64 69
56 64 62 59 57 60 52 63 61 60 59 54 64 52 64 72 73 77 79 77 77 77 75 73 70 65 60 62 67 66 65 61 62 62 62 59 59 58 62 62 64 63 63 64
54 56 57 56 58 62 56 63 62 60 58 58 59 55 60 70 67 73 78 80 77 76 75 73 72 69 63 63 63 64 66 60 61 63 62 60 60 61 60 62 68 65 64 65
54 64 59 60 63 63 64 59 60 60 58 47 55 56 59 66 69 72 76 77 77 76 75 75 75 73 70 65 65 63 64 62 61 65 66 63 64 60 59 60 62 67 65 69
51 52 61 62 55 60 58 54 45 44 44 44 59 54 59 69 73 75 76 79 77 76 74 73 73 72 71 66 65 64 64 61 64 66 65 63 65 65 62 63 63 69 67 64
47 42 55 63 59 56 53 54 45 38 43 49 57 50 61 72 77 79 77 78 78 75 74 74 74 73 71 68 65 64 64 63 62 61 62 66 69 65 67 69 70 68 69 70
44 46 58 61 63 62 56 49 59 50 53 46 55 59 66 71 72 75 77 77 77 76 75 75 75 74 73 69 67 65 66 64 64 64 64 64 68 67 68 70 70 71 71 72
48 41 55 58 62 63 60 64 48 51 39 39 51 54 57 64 67 74 75 77 78 78 76 76 76 74 74 72 70 67 69 68 68 67 67 67 68 69 70 70 70 70 72 72
51 46 49 55 54 54 55 53 54 56 53 43 43 53 67 67 69 72 76 77 77 77 76 76 77 76 74 72 71 65 65 68 69 70 69 68 68 69 69 69 70 70 70 71
50 46 40 46 58 59 57 56 56 47 46 51 50 52 71 71 72 74 75 76 77 77 77 77 76 76 74 72 71 66 61 64 67 69 70 69 69 69 68 68 69 70 70 70
48 43 38 43 51 54 50 53 53 52 52 47 43 52 69 72 69 71 74 78 77 75 77 77 76 75 74 73 72 71 68 66 69 70 69 69 68 68 68 67 67 69 69 69
48 44 41 39 43 49 45 48 52 49 42 47 50 54 62 67 69 71 75 78 80 77 76 76 75 76 76 75 74 73 72 71 71 71 70 68 68 68 68 68 68 68 68 68
49 39 44 45 47 48 47 48 50 48 50 44 49 53 60 65 67 70 75 77 77 78 77 77 76 77 77 76 75 74 74 72 72 71 70 69 69 69 69 68 67 68 68 68
43 39 41 40 47 47 44 49 51 51 52 53 54 52 64 68 72 71 73 75 76 77 80 82 79 78 77 76 75 74 74 72 72 71 70 71 70 70 69 68 68 68 69 70
40 40 37 35 45 44 37 45 50 53 57 54 49 58 66 66 68 71 73 74 76 77 78 79 80 78 77 76 74 74 74 73 70 70 71 70 70 69 69 69 68 67 65 65
38 37 35 32 37 27 49 57 57 54 56 59 59 61 65 68 72 76 78 76 76 77 77 79 79 75 74 77 76 75 74 72 69 70 70 70 69 68 69 68 66 60 53 50
46 41 33 30 34 42 48 54 52 51 53 59 57 63 67 70 72 72 77 76 74 68 72 75 76 72 69 68 70 71 71 70 67 61 62 63 63 58 53 49 49 47 43 40
47 43 36 35 29 27 47 56 58 58 45 57 58 57 60 63 57 66 75 66 63 63 65 66 67 65 63 62 63 58 55 52 50 50 49 50 49 47 45 43 40 40 38 36
33 33 30 31 29 39 53 56 58 40 44 56 56 56 58 58 65 69 60 54 59 57 56 57 56 54 56 56 54 50 48 46 47 47 46 45 44 42 41 39 38 37 34 33
35 32 29 31 29 28 54 48 38 44 53 57 54 54 56 62 62 59 52 49 50 50 50 52 50 50 53 54 50 46 43 45 45 44 42 41 41 41 40 38 37 36 34 32
38 45 42 40 38 52 55 48 50 52 53 57 51 52 59 59 59 50 48 47 47 46 46 45 44 45 46 47 46 42 42 43 43 42 41 40 40 39 40 38 36 35 35 32
50 53 45 44 50 50 49 48 51 56 59 57 59 59 58 52 52 48 48 47 45 45 43 43 42 40 40 43 43 43 44 44 44 41 41 41 39 38 38 37 35 34 34 32
50 52 48 47 51 53 55 56 58 60 59 56 56 59 58 52 49 47 45 44 44 41 42 42 41 40 40 42 44 47 48 47 43 41 40 39 37 35 32 32 33 32 31 33
52 49 45 44 54 53 53 58 59 58 59 56 53 59 58 54 49 46 41 40 40 38 39 38 39 39 40 41 42 45 47 45 42 39 39 38 38 37 35 32 29 30 30 30

GFSCGP_sfc_temp_099.txt.gz
Temp
66 62 58 62 65 64 64 65 67 71 78 73 71 72 76 82 83 82 84 85 85 84 86 83 79 76 72 66 66 62 64 63 63 61 62 61 60 62 63 65 64 64 64 66
63 57 66 69 67 64 61 61 62 69 74 72 70 70 75 79 81 83 83 84 85 86 83 79 76 74 69 66 66 60 62 63 63 63 61 60 60 62 63 63 63 63 63 64
59 65 68 62 61 61 62 59 61 62 69 73 69 65 69 77 81 82 84 85 86 85 83 78 75 73 71 66 66 65 63 64 62 61 61 60 60 60 60 60 61 61 62 63
63 68 64 62 59 63 56 65 63 62 61 56 70 54 68 75 77 80 82 83 84 85 85 82 77 73 71 68 69 70 66 65 62 62 61 60 58 57 59 59 60 61 62 64
59 60 59 59 59 61 59 66 62 62 60 60 61 57 64 73 71 76 81 83 85 85 84 81 79 76 74 71 67 66 66 65 64 62 64 60 59 59 59 60 59 60 61 64
62 70 64 61 65 65 65 62 61 61 59 49 58 58 61 67 72 76 81 83 84 85 83 83 81 79 74 69 67 66 64 64 63 62 63 62 60 60 59 59 59 59 60 61
58 59 65 63 57 63 60 55 44 44 46 45 61 58 62 71 77 78 79 81 82 83 82 81 79 77 74 69 66 67 65 62 63 63 62 62 61 61 60 62 62 62 62 61
51 49 60 63 57 56 57 53 44 37 42 47 62 54 63 75 79 82 83 82 84 83 82 81 80 78 77 72 70 67 66 64 64 64 65 66 66 66 62 65 65 63 65 68
49 51 63 63 62 61 57 51 61 49 52 45 51 61 70 73 73 78 80 81 82 82 82 81 81 79 78 74 72 70 70 69 67 66 68 68 68 68 67 64 65 67 69 70
53 44 59 61 64 62 58 64 50 53 38 38 51 55 57 66 67 75 78 79 82 84 82 82 82 79 79 76 74 71 73 72 71 68 67 68 70 70 70 70 69 69 70 71
56 51 53 58 55 55 53 51 55 57 54 43 41 50 68 71 70 72 78 80 82 83 83 82 83 82 80 78 76 72 73 73 72 71 69 68 70 71 71 71 71 71 72 72
56 48 44 50 62 63 60 58 57 46 45 51 50 52 72 73 73 72 76 80 82 83 84 84 83 82 80 78 76 73 73 74 74 73 71 70 70 70 70 70 71 72 72 72
50 47 40 45 55 60 53 58 60 59 57 49 44 50 74 74 74 74 72 79 81 81 82 82 83 81 80 78 76 76 73 74 75 75 73 72 70 70 70 70 71 71 71 71
49 46 44 41 45 46 48 52 55 54 46 49 52 57 66 69 71 72 73 77 80 81 82 82 82 82 81 79 77 76 73 73 73 73 73 72 71 71 72 72 72 71 72 71
49 40 47 49 51 52 49 50 52 51 53 47 53 55 63 68 70 72 75 76 77 80 82 82 82 81 82 80 79 78 76 73 73 73 72 72 72 72 72 71 71 71 70 71
52 40 46 44 50 51 48 52 53 54 55 56 57 56 68 71 72 70 72 75 75 79 82 84 84 83 82 81 80 79 78 75 74 73 72 73 72 72 71 71 70 70 70 71
39 41 40 35 48 48 41 49 53 55 58 58 51 60 68 67 69 69 71 73 75 78 80 83 84 84 83 82 81 80 79 78 75 75 75 74 73 72 71 71 70 69 67 66
40 40 38 35 40 29 49 62 60 56 59 61 62 64 67 68 71 74 76 75 76 80 81 82 83 83 84 85 82 80 80 77 75 74 75 75 73 73 72 69 57 49 46 43
46 41 34 31 35 44 49 55 55 54 54 64 62 63 62 67 70 72 79 80 80 79 78 79 80 83 81 81 82 80 78 76 74 73 73 73 73 61 53 47 43 41 39 37
47 45 37 35 30 29 48 56 56 59 43 58 58 55 58 62 55 66 75 79 72 72 73 75 74 74 73 76 77 77 73 63 52 52 50 50 49 46 42 40 37 37 36 35
38 35 33 34 31 40 55 59 59 40 42 54 56 59 56 55 57 63 67 64 67 67 66 66 67 67 62 61 57 50 48 45 46 45 44 43 42 40 39 37 36 35 33 33
35 32 32 35 29 29 57 55 43 47 52 54 58 60 58 55 55 60 57 55 56 55 55 58 56 53 53 52 49 45 42 44 43 42 41 40 40 40 38 36 36 35 33 31
35 45 40 41 42 54 58 53 53 52 48 53 55 59 56 52 54 53 49 48 48 49 48 48 47 45 46 46 45 41 41 42 41 40 39 39 40 39 39 37 36 35 35 33
49 55 47 47 53 55 57 56 54 51 51 55 60 60 56 50 53 50 48 47 45 45 44 44 43 41 40 42 43 43 43 43 42 39 39 39 38 37 37 36 37 37 36 34
50 50 48 48 53 56 57 58 54 53 59 60 60 54 56 53 53 52 47 45 43 42 42 42 40 40 41 43 43 45 44 44 40 39 39 37 36 33 32 33 33 30 30 34
53 50 47 44 54 53 55 60 61 59 59 60 56 56 55 57 51 46 39 39 39 38 39 39 39 41 43 44 44 45 47 45 44 41 39 36 35 33 31 29 28 30 29 29

GFSCGP_sfc_temp_102.txt.gz
Temp
67 59 55 60 63 64 62 59 57 60 66 65 69 71 74 79 80 78 80 82 82 83 85 80 78 75 71 67 65 64 64 64 63 61 61 61 61 62 64 65 65 64 64 64
61 54 64 68 67 64 62 57 55 61 65 64 66 67 74 76 78 78 79 81 82 84 82 77 75 73 67 65 65 64 64 63 64 63 62 61 61 62 63 64 64 65 63 64
57 63 70 65 63 60 60 57 55 53 60 64 63 62 68 75 77 80 81 83 84 83 79 75 73 71 66 64 64 64 65 63 63 64 62 60 61 61 61 62 62 64 64 64
61 68 65 62 60 61 52 62 61 59 55 47 62 49 63 70 73 77 79 80 81 82 84 77 74 71 66 64 65 67 64 62 63 64 63 60 58 58 59 62 62 61 63 62
57 61 60 58 60 64 58 64 60 58 55 54 56 52 59 69 67 73 77 80 80 82 82 77 75 73 71 66 64 66 65 62 63 62 63 60 58 58 59 59 59 60 60 61
60 69 66 64 66 65 67 60 58 58 54 43 52 53 55 62 67 72 79 81 82 82 82 80 77 75 72 67 65 64 64 63 63 62 63 61 59 58 58 58 58 58 58 59
58 60 65 67 59 62 60 53 41 38 39 39 56 53 57 67 72 74 77 80 80 81 79 78 76 73 71 65 64 63 63 61 62 61 62 61 60 60 59 59 58 58 58 58
48 46 61 66 60 55 55 53 40 30 34 40 48 42 58 73 76 77 81 82 81 79 78 78 76 73 70 66 64 63 62 61 61 61 61 61 61 61 60 60 60 60 60 60
47 49 64 64 65 62 53 48 58 45 47 40 44 55 67 73 71 75 77 80 78 79 78 78 78 74 71 67 64 65 63 64 62 62 62 62 62 63 62 62 62 61 61 62
52 42 57 62 65 63 57 61 46 48 32 31 43 48 49 58 64 71 73 76 77 79 79 79 78 75 73 70 68 66 67 66 64 64 63 63 64 64 63 63 62 63 63 64
54 48 48 57 55 53 53 50 51 51 46 36 35 44 61 63 67 69 70 76 77 78 79 79 79 77 76 72 70 67 67 68 65 66 65 64 64 65 64 63 63 64 65 65
53 46 41 48 57 61 56 54 52 42 41 47 45 46 68 65 66 69 70 74 78 79 80 80 80 77 76 72 71 69 68 69 67 67 66 66 65 65 65 64 64 65 65 65
51 44 36 41 51 58 53 56 57 55 52 45 38 44 66 67 65 70 71 72 75 79 80 81 80 77 76 73 72 70 69 70 70 69 66 65 65 66 64 64 65 66 65 65
49 44 39 35 43 47 42 48 51 53 36 43 48 52 60 62 63 68 71 71 74 76 79 79 79 78 77 75 73 72 70 71 71 69 67 65 65 65 66 65 65 65 66 65
49 37 42 45 48 49 48 47 47 46 50 41 48 51 58 62 61 67 71 72 74 75 77 78 78 78 78 76 74 74 71 71 71 70 68 67 66 67 67 66 66 66 66 66
50 38 42 39 47 48 45 49 49 49 51 52 53 53 64 67 69 68 70 72 71 73 76 78 81 80 79 77 75 74 72 69 70 69 68 69 68 68 66 66 66 65 65 66
40 40 38 33 44 45 38 46 49 51 55 54 48 56 63 63 66 67 68 70 71 73 74 76 79 80 79 78 77 74 74 71 69 69 70 69 69 68 66 67 66 64 59 50
38 35 37 32 37 26 46 58 58 55 57 60 59 61 64 66 69 69 71 72 72 75 75 76 77 77 79 80 78 76 76 72 70 69 71 71 69 68 68 61 47 44 42 39
47 40 32 29 32 41 47 54 52 47 48 52 50 55 60 63 63 65 63 66 68 71 75 72 73 74 76 77 78 77 75 74 71 70 70 70 69 52 47 42 40 39 37 36
46 46 36 33 28 26 45 54 60 57 41 51 53 50 54 59 48 58 60 64 64 65 67 71 72 72 70 64 72 73 70 63 52 51 50 48 46 43 39 38 37 36 35 34
36 36 31 31 28 38 53 57 59 38 38 48 53 54 53 51 56 59 58 59 61 59 59 63 58 57 56 55 52 49 46 44 44 44 43 41 40 38 38 37 35 34 33 32
33 31 30 34 30 27 56 54 42 47 53 53 53 54 53 55 58 56 57 52 51 51 51 53 51 50 52 52 47 42 40 42 42 41 39 39 38 38 37 34 33 33 32 31
31 42 37 40 40 52 56 55 55 54 52 53 53 55 56 54 55 53 51 48 46 46 47 47 44 43 44 45 44 39 40 41 40 39 39 37 37 37 36 34 33 32 32 31
45 47 41 40 47 48 52 58 57 56 54 56 57 57 57 51 51 50 48 46 44 44 43 43 42 40 39 41 41 40 40 40 38 36 35 35 33 33 33 35 35 34 33 31
43 49 46 46 49 52 54 56 56 57 57 56 59 57 52 53 48 47 43 42 41 40 40 41 40 39 39 40 40 40 40 38 35 33 32 31 30 29 28 28 28 28 29 29
49 48 44 39 48 48 49 58 60 58 58 58 55 54 51 49 44 40 36 36 37 37 38 39 40 39 39 40 39 39 40 39 36 33 32 30 29 28 27 26 24 28 28 28

GFSCGP_sfc_temp_108.txt.gz
Temp
55 45 41 49 48 52 47 44 43 48 56 50 51 51 56 59 61 62 64 65 64 68 65 67 64 63 60 60 60 59 58 59 59 57 59 61 61 62 62 64 65 65 65 65
49 43 52 53 51 49 47 45 44 50 55 53 51 51 59 57 60 63 63 65 67 65 62 63 61 61 60 59 59 58 59 59 58 58 57 60 60 63 63 63 65 65 64 65
45 50 58 53 50 48 47 44 45 46 51 52 48 48 52 58 60 63 65 67 69 68 62 61 60 58 58 58 58 59 59 61 60 58 58 57 58 60 61 61 62 63 64 65
48 56 53 51 49 51 44 52 51 49 45 40 50 37 49 55 57 60 63 66 68 62 65 64 61 57 57 57 58 59 60 61 60 59 58 58 55 58 59 62 63 63 63 64
46 48 48 48 51 53 49 53 51 50 44 38 42 36 47 52 53 58 62 66 69 67 65 64 61 60 58 57 57 59 59 60 61 60 60 59 58 58 58 60 61 63 62 63
48 54 52 50 55 53 55 49 48 45 41 33 42 39 43 45 52 59 66 68 71 67 65 66 64 59 57 57 57 58 59 60 60 60 60 59 58 59 58 60 60 60 61 61
48 49 52 55 48 52 49 41 31 29 29 32 45 41 45 52 58 61 64 66 68 71 65 63 57 57 56 56 56 58 59 58 60 60 59 59 59 59 59 60 60 61 60 60
38 35 47 53 48 45 44 43 33 26 27 33 44 34 42 55 59 60 63 64 66 68 67 63 60 59 57 57 57 58 58 58 60 59 59 59 57 59 59 60 60 60 60 60
37 39 51 53 52 50 44 38 48 37 36 32 36 44 52 58 54 57 58 62 63 60 62 62 61 59 58 57 57 57 58 58 60 60 59 59 58 57 59 59 60 59 60 60
44 34 46 51 53 51 45 49 36 36 26 27 33 35 38 46 48 53 54 56 61 63 62 64 63 59 59 58 58 57 59 58 60 60 59 59 57 57 57 58 58 59 59 59
43 38 38 46 42 40 40 40 40 40 36 30 26 32 47 47 49 49 50 56 58 61 62 64 64 61 59 59 58 57 57 58 60 61 59 58 57 58 58 59 59 58 59 58
43 37 30 36 47 48 48 42 41 30 29 32 33 35 57 52 54 51 49 55 62 65 62 62 64 61 58 58 57 57 58 58 59 61 60 59 57 58 59 59 59 58 58 59
43 34 27 32 38 44 39 44 43 39 35 30 26 34 54 56 53 52 50 53 60 61 61 63 62 62 59 58 58 58 58 58 59 59 59 59 57 56 57 58 58 58 58 58
46 36 32 26 31 36 34 40 42 37 27 30 31 37 46 49 52 52 51 53 58 58 62 63 60 61 59 59 59 58 58 59 59 60 60 57 56 56 57 57 58 58 58 58
41 31 34 36 38 38 36 37 38 37 38 31 36 40 48 51 52 54 54 53 57 59 64 63 62 60 60 59 59 60 60 59 60 60 61 59 58 57 57 56 57 57 58 59
38 30 33 31 36 37 34 37 38 40 41 41 43 43 55 55 58 56 58 58 57 57 58 57 63 61 63 62 60 60 60 60 60 59 59 60 59 59 57 57 56 56 56 57
34 32 29 27 34 34 27 34 37 40 44 43 37 46 49 49 54 52 52 54 53 54 55 55 55 56 54 64 64 61 60 61 60 59 60 59 59 58 57 57 57 54 47 45
32 31 29 24 29 18 35 45 45 42 45 47 46 46 48 49 51 53 54 53 52 52 52 52 52 51 52 51 63 63 61 60 60 60 60 60 59 59 58 53 46 43 41 39
38 32 21 18 22 31 36 43 41 38 39 44 43 45 47 50 50 48 53 54 51 50 51 50 50 49 49 48 54 63 61 60 59 59 60 60 60 50 45 42 39 38 37 36
38 36 28 22 19 20 35 45 51 47 32 44 45 44 45 47 37 42 50 52 50 49 48 47 47 47 45 45 48 57 56 58 50 47 47 50 47 44 40 38 37 36 36 34
28 29 24 25 18 27 42 48 51 29 33 46 46 46 44 42 45 49 50 48 47 45 44 45 43 42 43 44 45 43 43 42 45 44 44 43 42 39 38 36 35 34 33 32
28 25 23 26 18 20 45 43 37 39 43 44 44 45 45 46 47 47 45 43 42 40 41 42 40 40 43 44 44 41 40 42 43 42 40 38 38 38 36 34 33 33 32 30
28 32 28 27 29 41 43 42 44 44 44 44 44 46 46 45 46 44 42 39 40 40 40 40 39 39 40 41 41 39 40 41 40 38 37 36 36 35 34 33 33 31 31 30
34 36 33 34 37 38 43 47 48 49 46 47 49 47 46 43 45 42 39 39 38 39 40 40 39 36 36 37 38 38 38 39 37 35 35 35 34 34 33 33 32 30 29 27
34 35 33 34 36 39 44 45 47 47 48 47 46 44 44 43 40 38 36 36 35 35 38 39 36 35 34 35 34 35 35 35 32 32 31 30 29 28 27 27 27 27 27 27
41 37 33 31 39 40 43 47 48 47 47 47 43 39 38 39 35 34 31 31 32 32 34 34 35 35 34 34 33 33 34 33 30 28 27 26 26 25 25 24 24 28 27 28

GFSCGP_sfc_temp_111.txt.gz
Temp
54 45 39 46 52 52 45 43 41 43 51 47 49 49 53 57 54 54 56 61 62 63 68 66 61 60 59 60 60 60 59 59 59 60 60 60 60 61 61 62 64 64 64 63
48 41 49 53 50 46 44 42 42 46 51 48 46 48 55 53 55 56 57 60 62 65 62 62 57 59 59 59 60 59 60 59 58 59 59 61 61 61 62 63 64 65 64 63
44 47 55 52 48 45 44 42 41 43 47 48 45 45 50 54 55 58 59 61 63 64 62 60 57 57 59 58 59 59 59 59 57 57 57 58 60 61 60 61 62 63 64 64
47 53 51 48 47 48 41 48 48 46 40 37 47 36 49 50 52 55 58 61 61 61 65 63 59 56 57 59 59 58 59 58 57 57 56 58 59 59 61 61 62 63 64 64
43 46 46 46 48 51 46 52 48 47 42 36 40 33 45 49 51 54 57 60 60 63 65 61 60 59 58 58 57 58 58 58 60 58 57 56 55 57 59 61 61 62 62 64
47 52 52 50 53 52 52 47 45 43 39 30 40 37 42 42 49 53 59 62 61 62 63 62 63 60 57 56 56 57 57 60 61 60 57 57 55 55 56 58 59 61 62 63
46 47 49 53 46 50 46 40 29 28 27 30 42 37 43 48 54 55 55 57 60 62 63 63 61 57 56 55 56 57 57 59 60 60 59 57 58 59 57 57 58 59 61 61
37 34 46 51 47 44 42 40 30 25 25 31 41 32 40 52 53 54 57 57 59 60 62 64 62 58 56 56 56 57 57 59 60 60 59 60 59 59 60 60 60 61 61 61
36 38 50 51 50 48 42 36 44 34 34 30 34 39 48 51 50 53 53 54 55 57 59 63 61 58 57 56 56 57 57 59 59 60 58 59 59 59 59 60 61 61 62 61
42 33 44 48 50 48 43 46 34 33 26 26 30 31 35 44 45 50 49 50 52 55 57 61 60 58 57 58 57 57 57 58 57 60 59 58 58 58 58 59 59 59 59 60
42 37 36 44 40 38 39 35 35 36 32 27 26 30 43 44 46 46 47 50 51 52 56 59 62 59 58 57 57 57 56 56 56 59 59 57 58 57 57 57 59 59 59 59
44 36 29 34 43 44 42 37 36 30 28 30 28 29 47 48 47 48 49 53 52 53 56 60 61 57 56 56 57 57 56 56 57 58 59 57 57 58 57 57 57 58 58 58
42 34 27 30 35 41 37 40 41 37 35 30 27 29 50 51 51 50 49 52 52 52 56 58 61 57 57 57 57 58 56 56 57 58 59 58 58 58 57 57 57 57 58 58
44 35 31 25 29 34 31 35 39 36 25 30 30 33 42 47 48 50 51 52 51 52 54 58 58 57 57 57 57 58 58 56 57 57 60 58 57 57 57 57 57 55 57 57
38 30 32 33 35 35 34 33 34 33 34 27 33 35 41 47 48 52 54 54 52 52 54 56 55 56 57 57 58 58 58 56 56 56 57 58 58 57 56 56 56 57 56 56
38 30 31 30 34 35 31 34 35 35 36 36 37 36 48 52 53 54 54 54 52 51 53 55 55 55 55 56 58 58 58 57 56 56 57 58 57 55 55 55 55 56 57 55
32 30 28 25 32 31 27 33 34 36 39 37 32 41 46 46 49 52 51 52 51 51 51 52 51 52 52 52 55 59 59 59 57 57 56 58 56 55 54 55 54 54 49 47
31 30 27 23 28 16 33 41 41 38 41 43 43 44 45 46 49 50 52 50 50 50 50 50 49 49 50 50 52 58 61 59 58 57 57 57 56 55 55 53 47 43 42 40
35 30 20 16 21 29 34 39 38 35 35 42 43 43 45 47 48 47 52 51 49 48 48 48 48 48 47 46 48 57 59 59 58 57 57 58 57 51 47 43 40 39 38 36
35 34 27 21 17 13 32 43 47 44 29 41 42 41 43 45 38 42 49 48 47 46 45 45 45 45 45 45 49 50 54 55 54 56 56 54 49 46 41 39 38 37 36 34
27 28 24 23 15 26 39 44 48 26 31 43 44 43 43 41 44 48 47 44 44 43 42 43 42 40 42 44 45 46 45 43 43 44 46 46 45 43 40 37 37 35 34 33
27 25 24 25 17 18 43 42 35 40 44 45 45 45 44 44 48 44 42 40 40 39 40 41 41 39 40 42 42 42 43 43 42 40 39 39 38 38 37 35 34 34 33 31
25 30 28 29 27 39 40 41 45 45 43 44 43 45 46 43 45 43 40 40 39 39 40 41 39 38 38 39 40 37 39 42 39 37 35 34 34 34 35 34 32 31 31 30
32 35 32 32 35 37 41 44 45 47 45 46 45 44 44 42 43 40 39 38 37 37 38 39 37 35 34 35 36 37 37 38 37 35 34 33 32 31 31 31 31 30 28 27
32 35 32 34 35 37 42 44 45 47 46 43 41 40 40 39 37 37 35 34 34 34 36 37 35 33 32 33 33 34 34 34 30 30 29 28 28 27 27 27 27 26 27 27
37 37 30 29 38 36 38 44 46 43 40 42 40 36 35 36 34 33 30 31 31 31 33 34 34 33 32 32 31 32 33 32 29 28 27 26 26 27 26 26 25 29 28 29

GFSCGP_sfc_temp_114.txt.gz
Temp
53 42 36 41 50 51 44 41 39 40 50 48 49 47 48 53 52 53 54 53 56 60 65 62 62 59 57 59 59 60 60 59 60 61 60 60 59 60 62 62 62 62 63 63
45 38 45 50 50 48 44 40 41 45 50 48 43 45 50 53 53 55 55 54 56 58 64 66 60 56 57 59 60 60 60 59 61 62 62 61 61 61 62 62 62 62 62 61
44 45 51 49 46 44 41 39 38 42 46 46 42 42 45 51 52 56 57 56 57 58 60 63 61 55 55 57 59 60 60 60 60 62 62 60 60 60 60 61 61 62 62 61
46 50 49 47 45 48 41 47 47 46 39 32 44 32 44 49 49 53 56 55 55 56 59 62 59 54 55 57 57 59 59 60 58 58 61 60 60 59 60 60 62 62 62 61
42 44 45 45 47 50 42 48 46 44 39 34 36 34 39 49 48 50 53 55 55 56 57 59 61 57 56 57 56 58 60 60 58 58 59 60 59 60 61 61 61 62 63 62
46 50 48 48 51 52 51 45 44 40 36 28 37 36 39 41 46 48 53 55 55 55 56 59 63 59 55 56 56 59 59 59 58 57 55 56 55 58 59 60 60 61 62 62
44 46 49 52 46 47 44 39 30 28 27 27 40 35 42 47 51 50 50 52 53 53 54 56 58 59 56 57 57 58 59 58 58 57 57 55 55 58 59 60 61 60 61 61
35 33 43 49 47 43 40 39 31 25 25 29 39 30 38 48 50 51 52 52 53 52 54 56 58 61 57 58 57 58 58 58 57 58 57 57 56 56 56 57 59 60 61 62
34 36 48 50 49 48 41 37 43 34 32 29 32 37 45 48 48 50 50 51 49 51 53 55 58 60 55 57 58 58 59 60 57 57 59 59 59 59 58 57 57 58 60 61
39 32 43 48 50 48 44 45 35 34 27 26 28 30 34 41 43 47 46 47 49 53 53 56 58 60 61 57 59 57 59 60 58 58 60 59 59 59 59 58 59 58 60 61
41 35 37 41 40 38 39 36 36 37 32 26 23 29 42 41 44 45 46 48 48 51 51 54 57 59 61 58 58 57 57 59 59 59 60 58 58 58 58 58 59 59 59 60
40 35 31 35 42 42 40 36 35 28 26 30 28 28 46 43 44 47 47 50 51 52 53 54 56 59 55 56 57 57 57 58 58 57 59 58 58 58 57 57 58 58 58 59
40 34 26 30 36 40 36 38 38 35 31 26 22 28 47 48 48 48 48 49 50 51 53 53 56 56 55 56 57 57 57 57 58 55 59 57 57 57 57 57 57 57 57 57
44 35 31 25 31 36 33 35 36 32 22 26 29 32 41 42 44 47 49 49 49 52 52 52 54 54 56 57 57 57 57 58 57 56 58 57 57 57 57 57 57 57 57 57
38 30 33 33 35 34 33 32 33 31 32 26 32 31 39 43 46 47 51 50 52 52 52 51 52 52 53 55 57 57 57 57 57 55 57 57 57 57 57 56 56 56 57 57
37 29 30 29 34 33 30 32 32 32 34 32 34 33 44 47 49 48 50 51 51 52 52 52 52 52 51 52 52 57 57 56 56 55 56 58 56 56 56 55 56 56 56 56
31 30 28 24 30 30 25 32 32 33 35 34 29 37 42 43 46 46 47 49 49 50 51 50 50 49 49 49 50 51 57 57 55 56 58 57 56 55 55 55 55 54 50 48
30 28 27 23 27 14 30 38 37 35 37 39 40 42 43 45 45 46 49 48 49 49 48 48 47 47 47 47 48 49 53 57 56 55 57 57 56 55 55 54 47 44 43 41
34 30 20 15 20 27 31 37 36 33 32 40 39 41 43 45 45 43 49 49 46 45 45 45 46 45 45 46 47 48 51 57 57 55 55 55 56 53 49 45 42 40 39 37
32 32 27 22 17 12 30 38 42 39 26 39 37 39 40 42 37 42 46 46 44 44 43 43 44 43 43 43 45 48 54 55 55 55 55 55 52 49 45 41 39 37 36 34
27 27 23 24 20 26 35 41 43 25 28 37 41 41 40 39 40 45 45 43 42 41 40 42 43 41 40 42 43 44 43 42 45 46 47 48 47 44 41 38 37 35 34 33
26 24 23 25 20 16 38 38 30 37 42 42 43 44 43 42 46 43 41 40 39 39 40 41 39 38 38 39 41 40 39 40 41 41 39 38 39 39 38 36 35 34 33 31
24 29 27 28 27 35 37 40 42 44 41 42 43 44 43 42 44 40 39 39 38 38 39 39 37 36 36 36 37 36 37 39 37 36 35 35 35 35 34 33 32 31 31 30
32 34 31 31 35 35 37 41 45 42 40 45 42 43 43 41 41 38 37 35 35 36 36 37 35 33 32 34 34 34 36 37 35 32 31 32 32 31 31 32 31 30 30 29
33 35 31 32 35 37 41 42 41 42 44 38 38 37 38 37 36 35 33 32 33 33 35 35 33 32 31 32 32 33 33 32 30 29 29 29 29 28 27 28 28 28 28 29
36 33 30 29 35 35 37 41 42 38 38 40 37 34 35 36 34 33 30 30 30 30 32 32 32 31 30 31 30 31 32 31 29 28 28 28 27 27 27 27 26 30 30 30

GFSCGP_sfc_temp_120.txt.gz
Temp
62 55 52 58 60 60 59 58 56 63 66 63 63 65 69 73 73 71 72 75 77 78 82 83 83 82 81 81 81 80 79 78 78 73 70 66 65 65 66 69 70 68 70 67
58 51 61 64 62 57 56 54 55 61 64 59 61 62 69 71 71 74 74 75 76 76 78 79 80 80 79 79 78 78 78 77 78 73 71 70 68 68 69 66 69 67 69 68
53 58 62 59 55 53 54 52 53 53 59 60 58 57 63 70 73 73 73 75 73 74 73 75 76 77 78 78 77 78 79 77 75 77 71 72 70 68 64 64 64 66 71 71
56 62 58 55 52 55 48 59 56 52 49 46 61 47 59 64 65 68 70 70 72 73 73 74 75 76 76 76 76 77 78 75 69 72 69 71 69 68 70 69 67 69 71 69
51 53 53 50 54 56 52 58 52 51 51 51 54 49 58 62 61 64 68 68 69 70 71 73 75 76 77 75 73 75 75 68 68 69 73 73 74 75 73 65 66 67 64 65
54 62 56 55 57 57 59 53 52 52 51 41 51 51 55 58 62 63 66 66 67 69 71 73 76 76 76 75 72 69 69 67 66 67 71 73 74 73 70 66 68 67 62 61
52 54 58 57 51 54 53 46 38 34 37 38 56 50 54 63 63 64 62 64 66 69 69 71 72 73 73 72 73 70 64 64 63 63 69 71 71 72 69 69 68 67 62 60
42 40 50 54 49 47 47 47 38 28 35 42 52 44 52 61 63 63 63 63 65 67 69 70 71 71 72 71 73 73 70 63 63 62 64 68 71 70 68 70 70 66 64 62
40 42 54 54 53 52 45 40 53 42 44 39 47 50 55 59 59 61 62 64 64 66 67 70 71 71 71 70 69 72 72 68 64 61 63 65 67 72 71 71 70 69 66 64
45 36 50 49 51 53 48 53 41 43 31 32 44 46 48 52 55 59 61 62 64 67 68 69 70 71 72 71 69 64 70 67 65 63 62 67 69 73 72 70 70 69 65 64
49 42 43 50 40 35 39 42 42 44 44 35 36 44 59 55 56 56 59 61 64 66 67 68 69 71 72 71 69 64 62 63 63 63 62 66 68 70 70 66 66 67 65 63
49 43 36 42 51 49 45 36 36 34 36 44 43 43 60 58 57 59 59 62 63 66 68 68 69 69 70 68 67 65 56 60 61 62 62 64 67 71 70 68 69 68 67 69
45 40 32 38 44 44 37 44 43 38 38 38 36 43 60 60 60 63 61 62 63 64 67 68 69 67 66 65 65 63 57 55 60 62 62 62 66 69 67 68 68 64 63 64
45 41 36 31 31 39 36 36 42 41 34 37 43 47 53 56 58 60 61 62 63 64 66 67 67 67 66 64 62 61 53 53 59 60 60 61 65 67 68 69 65 63 63 63
45 36 40 41 43 43 39 38 41 39 42 37 43 46 52 56 58 59 60 61 62 62 64 65 65 65 64 60 59 56 51 52 55 58 59 61 65 67 68 67 63 63 63 61
46 35 39 36 42 42 38 42 43 44 44 45 46 45 58 60 60 58 59 60 60 62 62 62 62 61 58 57 53 50 50 50 51 57 58 64 65 65 66 65 62 61 60 59
39 37 35 30 39 39 32 40 42 44 48 46 40 49 57 55 56 57 58 60 60 60 58 58 58 57 56 56 52 47 47 49 50 54 58 63 66 65 65 64 62 58 56 53
37 36 35 29 34 21 41 50 47 44 47 50 50 52 54 55 57 59 61 60 57 54 55 56 56 55 55 55 54 47 47 48 49 51 57 61 64 64 65 62 58 52 50 47
44 37 30 26 29 36 40 45 44 42 43 52 50 51 52 52 53 57 58 55 53 53 53 54 54 53 52 50 48 46 46 46 47 51 56 59 62 61 60 54 50 46 43 41
38 39 33 31 23 20 37 46 51 50 36 48 46 43 39 40 40 46 49 50 49 49 50 50 50 50 47 44 44 44 42 41 41 42 51 58 60 57 52 47 43 42 39 37
29 30 27 28 25 33 45 47 51 31 34 46 42 36 33 38 40 43 45 44 45 45 46 46 46 43 40 40 40 39 39 37 39 40 42 55 56 51 47 42 40 38 36 35
27 27 28 30 26 23 46 46 35 42 47 42 39 40 41 44 43 42 44 43 42 42 42 43 41 39 39 38 37 36 34 35 37 38 38 46 46 44 42 39 37 36 35 33
27 29 28 31 33 42 44 41 47 48 43 41 40 43 43 42 42 42 41 40 40 39 40 41 39 38 37 35 35 33 34 34 36 36 35 34 38 39 39 37 35 34 34 33
34 36 31 31 33 34 35 37 39 43 39 40 41 42 42 39 39 38 37 37 37 38 39 40 40 37 34 33 33 32 34 34 34 33 32 33 32 33 34 34 34 33 33 31
33 36 32 32 33 35 37 35 34 36 36 36 42 42 40 41 38 37 34 33 35 36 37 38 37 37 34 31 30 32 33 34 31 32 32 32 32 30 30 31 31 31 31 31
37 31 29 29 31 32 33 33 36 35 35 37 40 40 41 40 38 38 35 34 33 33 34 34 34 34 35 30 28 30 31 33 31 30 30 30 31 30 29 28 28 31 30 30

GFSCGP_sfc_temp_123.txt.gz
Temp
67 59 55 62 64 63 61 59 57 64 70 67 67 68 72 78 80 76 79 80 81 82 87 88 87 86 85 85 84 84 83 83 83 83 81 80 76 71 69 71 78 75 72 73
62 56 63 67 66 63 62 57 57 62 67 64 62 63 69 74 77 77 78 79 80 82 84 84 84 83 83 82 83 83 83 83 83 84 83 80 75 67 68 70 74 76 74 70
57 62 68 63 61 59 60 56 56 55 61 64 62 58 62 70 75 78 79 80 82 80 80 80 80 81 80 80 78 81 83 84 82 83 81 71 69 67 64 67 70 74 73 73
58 65 63 61 57 60 53 62 59 56 53 47 61 46 60 66 70 73 76 76 77 78 78 79 79 80 80 79 78 80 82 83 82 81 77 68 66 65 65 67 69 72 73 73
54 58 58 55 58 62 55 62 58 56 51 52 54 51 58 66 64 67 71 74 76 76 75 76 78 79 81 79 78 76 79 80 78 76 76 70 66 72 72 73 69 69 71 73
58 66 62 60 62 62 62 57 56 54 49 39 49 51 54 59 64 68 71 73 73 74 74 76 78 79 80 77 76 77 74 74 70 69 70 68 67 72 72 72 69 70 69 70
56 58 64 65 56 61 58 49 35 33 33 35 53 50 54 64 69 71 69 69 70 72 72 74 75 76 77 76 75 76 78 72 70 68 69 67 69 69 73 71 70 68 64 64
43 42 55 58 56 52 53 50 36 28 33 40 53 44 55 67 69 70 71 70 70 71 72 73 74 75 76 75 74 73 77 76 70 69 67 65 68 70 76 74 71 71 67 64
41 43 58 56 56 56 50 43 53 41 44 38 47 54 59 64 63 65 67 68 67 68 70 73 74 74 75 76 74 71 72 76 70 67 68 64 65 69 74 75 70 73 69 67
46 37 52 55 55 55 45 54 37 37 27 29 43 45 48 55 58 63 64 65 67 69 70 72 74 74 75 75 74 72 70 72 72 69 67 63 63 67 71 73 71 71 72 67
50 44 44 52 47 44 41 40 46 44 39 35 34 42 59 57 59 60 63 64 67 68 70 72 72 74 75 74 73 70 69 67 67 68 66 64 63 65 68 70 70 71 70 70
49 41 36 42 53 53 47 42 34 33 36 42 42 42 57 61 63 63 62 64 67 68 70 73 72 73 73 71 71 70 66 66 64 65 65 65 62 64 66 68 71 72 70 70
45 40 31 37 48 49 40 41 41 38 35 31 34 38 57 58 62 65 63 65 67 67 70 72 73 73 72 71 68 67 67 65 65 63 62 63 62 63 65 66 69 67 68 70
47 40 36 31 37 35 37 36 42 40 33 36 35 38 43 45 58 63 64 66 67 67 69 71 72 72 72 70 66 65 62 63 61 57 60 61 62 63 64 68 67 65 68 69
46 35 39 42 46 46 45 43 42 38 39 35 44 44 45 56 60 63 64 64 65 66 67 69 70 70 68 67 65 64 60 61 59 54 54 60 61 62 64 65 64 65 66 67
47 32 39 36 43 45 42 45 45 45 43 44 46 47 60 63 64 62 63 63 63 64 66 68 67 65 63 63 62 62 58 54 56 52 52 58 60 61 63 63 63 63 64 64
40 38 35 30 41 40 34 43 46 47 49 46 40 50 59 58 59 60 61 62 62 64 63 63 61 61 61 60 60 57 56 55 51 51 53 54 60 61 65 63 63 62 61 58
39 38 36 30 35 22 42 52 51 47 49 52 53 55 58 59 59 60 62 61 63 61 60 60 60 60 60 59 55 51 53 53 50 49 50 53 59 62 66 62 60 56 54 48
48 40 31 26 27 35 41 44 46 44 44 54 53 55 56 54 52 55 58 59 56 54 56 56 58 57 56 52 49 49 48 49 48 45 46 47 57 64 65 58 52 48 45 43
39 38 32 32 23 22 35 47 53 52 37 50 49 47 47 45 35 42 45 48 48 50 51 51 53 52 49 46 45 46 44 43 42 40 41 43 45 62 58 49 46 44 41 39
32 32 28 31 27 35 41 49 52 32 33 46 44 39 36 34 38 41 42 43 44 48 47 49 49 46 43 43 41 41 41 38 38 39 40 42 44 54 51 45 42 39 37 36
27 27 29 30 27 24 39 46 33 38 47 42 41 37 34 39 40 43 44 42 44 44 46 49 48 46 44 40 37 37 37 37 37 38 38 37 44 47 45 42 38 37 35 34
27 30 28 30 30 36 37 35 37 38 40 38 37 37 44 42 42 42 40 40 41 44 46 48 47 46 45 41 35 33 34 35 35 35 35 35 36 40 41 38 36 35 35 33
33 37 31 31 34 33 35 36 36 35 35 37 39 44 45 41 42 41 41 42 43 44 43 45 44 43 41 40 36 32 34 35 33 32 33 33 33 32 35 36 35 34 33 32
36 37 33 33 35 38 39 36 35 36 37 38 40 44 43 42 40 40 39 39 40 39 40 40 38 37 38 38 35 31 32 33 32 31 32 32 32 31 30 30 31 31 32 33
40 32 30 30 34 32 34 35 40 37 38 40 40 41 43 41 39 39 36 36 35 34 35 33 33 33 33 35 33 29 31 32 31 30 30 30 31 30 29 28 28 31 30 30

GFSCGP_sfc_temp_126.txt.gz
Temp
66 58 52 58 61 61 59 57 55 62 68 64 58 60 67 73 75 73 76 77 78 80 84 85 84 82 81 80 79 78 76 75 74 73 73 73 70 71 71 72 72 73 72 72
60 53 63 65 64 61 59 56 56 62 66 62 60 58 64 68 70 72 71 75 77 79 81 83 81 79 78 78 78 77 77 76 76 76 73 74 74 72 71 70 71 71 72 72
55 59 66 64 62 58 57 55 56 55 62 64 58 54 59 67 70 72 72 75 79 77 77 80 78 76 76 75 75 77 77 77 75 75 75 72 69 67 64 66 67 70 70 69
58 63 61 59 57 60 52 61 59 57 54 46 59 42 55 61 63 68 70 72 74 76 78 78 77 76 75 72 74 75 75 77 78 75 74 68 65 64 65 66 66 68 70 68
52 56 56 54 57 61 54 62 58 56 52 50 51 46 52 60 59 64 68 72 73 74 75 75 75 76 77 73 73 73 73 73 75 74 72 70 66 67 66 66 64 65 68 68
56 64 61 58 61 62 63 57 55 55 50 38 47 46 47 54 60 65 70 71 72 72 72 74 75 75 75 71 71 71 72 71 69 68 67 69 67 66 65 65 64 65 66 67
54 54 60 63 56 59 58 50 38 32 33 33 49 45 48 60 64 67 68 70 70 71 69 70 72 72 72 71 70 69 70 72 69 67 66 66 67 67 67 67 66 65 65 66
41 38 54 58 53 48 50 43 37 28 30 37 50 39 49 64 67 69 72 69 70 69 70 71 72 72 72 72 70 68 68 69 69 67 65 65 65 66 67 65 67 67 66 65
38 39 54 56 57 54 45 41 50 38 43 36 40 50 59 63 65 65 66 67 67 68 68 71 72 71 71 70 69 67 68 68 69 68 65 66 64 65 65 67 68 68 66 65
45 34 49 52 56 55 49 52 36 37 26 27 38 42 44 53 59 62 62 64 66 67 68 70 71 71 71 71 70 67 67 66 66 66 66 66 65 64 65 65 66 67 65 64
48 41 39 47 45 44 43 39 43 40 35 31 31 40 57 50 49 57 61 64 65 66 67 68 69 71 71 70 69 66 65 64 64 64 63 64 64 63 63 64 66 68 66 65
48 40 32 39 51 53 49 35 35 28 28 34 37 39 57 57 53 52 62 64 65 67 68 68 69 71 70 70 69 66 64 63 61 63 62 62 63 63 63 63 64 64 66 65
45 33 24 32 43 48 38 41 42 36 34 29 27 37 54 55 54 60 61 64 65 66 67 68 69 69 70 70 65 65 62 60 61 60 59 59 62 62 61 63 63 65 65 65
45 39 34 27 34 35 35 40 44 37 29 32 34 36 39 42 46 50 56 64 64 65 66 67 67 68 66 65 64 63 61 59 59 58 57 56 59 61 62 62 63 63 64 64
41 33 38 40 42 44 43 42 43 40 38 32 37 37 38 37 42 49 54 63 64 64 65 66 67 64 63 62 61 61 60 59 57 54 55 55 56 61 61 61 62 62 62 63
41 28 30 30 41 43 39 43 45 45 45 43 42 40 52 54 54 56 61 62 61 62 64 66 64 62 61 60 59 59 56 54 55 54 53 55 54 58 60 60 60 61 61 61
40 37 33 28 39 38 32 41 44 46 48 46 38 45 53 53 54 53 55 57 58 61 62 60 58 58 57 57 56 52 51 53 52 52 52 52 51 54 59 60 60 59 59 56
39 35 35 29 33 21 39 46 48 47 48 50 50 52 52 48 51 54 52 52 52 54 55 55 55 56 56 55 51 49 50 50 49 49 50 49 47 50 57 59 59 56 52 48
44 37 30 26 28 35 40 40 43 42 43 47 45 44 44 47 49 47 47 48 48 50 50 51 53 53 52 49 46 45 46 47 46 45 44 45 44 44 48 54 54 49 45 42
42 40 30 31 23 22 29 36 46 50 34 40 43 38 36 38 34 39 42 43 44 47 49 49 50 50 47 45 43 41 42 42 41 39 40 42 43 43 45 50 49 45 42 39
31 31 27 28 26 30 32 40 46 30 27 39 41 38 35 33 36 39 43 43 44 44 47 50 50 48 47 45 41 37 37 37 37 39 39 40 42 41 43 47 44 40 37 36
27 26 28 29 24 20 34 39 28 31 36 36 36 37 37 39 41 41 42 41 43 44 46 48 47 46 47 44 40 35 34 36 36 37 37 38 39 40 46 43 41 38 36 34
27 30 28 29 28 34 35 33 35 35 34 35 36 38 42 40 40 41 41 43 43 43 43 44 43 43 43 42 39 33 32 34 34 34 34 35 37 36 37 39 37 36 35 33
36 37 31 30 35 35 34 36 36 36 35 37 39 39 40 39 40 40 40 39 39 40 38 39 38 37 36 37 37 34 32 32 32 32 32 33 33 32 33 33 35 35 34 33
35 36 33 32 35 37 39 36 35 37 38 39 42 41 40 39 38 38 36 35 35 35 35 35 33 32 32 34 33 33 31 30 30 31 31 31 31 31 30 29 29 32 32 33
41 33 30 29 33 32 34 36 40 38 39 40 40 39 40 39 37 37 34 33 32 31 32 31 30 29 29 30 31 31 30 29 29 29 30 29 29 28 28 28 27 30 31 31

GFSCGP_sfc_temp_129.txt.gz
Temp
56 45 40 46 49 52 51 48 46 53 59 55 55 52 55 59 63 62 65 68 68 69 73 75 74 71 69 69 70 70 69 66 66 64 66 66 66 66 67 69 69 70 70 69
50 43 53 58 57 54 52 48 47 53 57 55 54 56 54 57 64 65 65 65 66 69 73 75 69 68 67 67 67 68 68 68 67 65 64 65 68 67 69 68 67 67 69 69
44 51 60 58 54 52 51 48 47 48 53 55 53 49 50 57 64 67 69 71 70 69 71 71 70 65 66 64 66 68 67 67 67 67 65 63 63 63 64 67 67 69 67 69
48 56 54 51 50 53 45 54 53 50 46 39 47 36 49 52 56 62 65 68 67 69 70 72 67 65 62 63 67 68 68 67 68 67 65 64 61 60 62 65 67 67 67 67
44 48 48 46 50 54 47 55 51 49 43 41 44 39 46 52 52 57 63 66 69 68 69 66 64 66 65 66 66 66 67 67 65 65 64 62 61 61 61 62 64 66 65 67
48 55 52 50 55 54 56 51 50 46 41 33 42 38 40 46 52 57 62 66 70 68 65 67 67 66 64 64 64 65 64 64 64 64 63 61 62 61 61 61 63 64 65 65
45 47 51 56 46 51 48 40 30 29 28 29 44 39 43 51 56 59 61 61 63 65 63 62 64 65 63 62 62 65 63 63 63 63 62 62 63 63 63 63 62 63 63 64
33 30 44 51 46 42 41 38 28 22 25 30 43 35 43 54 59 63 64 63 64 62 63 63 64 65 64 62 61 63 63 62 64 62 61 62 62 62 64 64 63 65 64 64
32 34 48 50 50 47 41 34 40 31 33 28 34 41 50 56 57 60 62 63 58 57 59 61 64 64 64 61 60 61 60 61 60 60 63 63 63 63 64 64 64 65 65 64
39 28 43 47 47 48 43 44 29 32 22 22 31 33 35 48 49 49 53 57 58 57 60 63 62 63 62 61 60 59 60 59 58 58 59 62 62 62 63 63 63 64 64 64
41 35 34 42 38 36 38 35 35 34 32 26 24 28 41 39 45 46 48 53 57 57 60 62 62 64 63 62 60 58 57 57 55 55 56 56 59 62 61 62 62 63 64 63
41 34 26 31 42 46 44 35 33 26 25 27 27 28 42 40 45 47 46 55 55 61 62 63 62 62 63 59 58 56 56 56 55 55 54 55 56 59 61 61 62 63 63 63
40 30 21 27 35 41 35 39 40 34 31 24 22 29 46 43 40 48 48 52 59 60 62 62 62 59 59 58 59 57 55 55 54 53 52 53 54 56 59 61 62 62 62 62
40 33 27 21 28 36 29 34 41 37 27 27 30 34 39 40 38 41 48 51 53 58 60 59 58 57 56 57 57 56 54 53 53 51 51 51 53 54 55 59 61 62 62 62
37 26 30 33 35 37 36 37 40 37 36 28 35 36 41 43 40 41 46 50 55 59 59 59 56 54 55 54 54 53 51 51 51 51 51 51 52 53 54 56 60 62 62 62
37 25 30 28 35 36 35 37 39 39 40 39 40 40 49 48 46 44 47 51 50 51 53 54 54 54 53 51 49 48 47 47 49 49 49 51 51 50 50 53 57 60 61 60
31 30 28 24 34 33 27 33 37 39 42 40 33 36 44 43 46 43 44 46 46 48 48 48 48 49 48 46 46 43 44 46 47 47 47 48 48 46 46 49 50 59 59 58
33 30 28 24 28 18 34 38 37 35 34 36 38 38 40 41 44 43 44 42 43 46 46 46 46 46 45 44 42 42 43 44 44 45 43 42 42 43 44 46 48 55 55 53
38 30 25 18 22 30 29 33 31 31 31 35 37 38 39 40 43 39 43 43 43 43 45 46 47 45 42 41 40 39 40 41 42 40 38 40 40 40 42 42 44 48 48 47
38 35 28 26 21 18 26 34 42 36 26 33 36 36 35 37 31 34 40 42 42 44 45 46 48 46 41 38 38 37 35 37 36 36 36 38 39 40 40 40 42 47 46 41
24 23 24 25 22 25 31 37 41 25 22 34 35 35 34 33 35 37 41 41 44 44 43 44 44 41 39 38 36 33 33 31 33 34 35 37 38 39 40 40 41 41 39 38
22 17 19 21 12 13 34 35 25 30 34 35 35 34 34 35 39 40 41 40 41 37 38 38 37 36 37 36 34 31 29 31 32 32 34 35 36 37 39 39 41 39 37 35
19 28 25 27 26 33 35 33 35 35 33 34 35 35 35 36 37 39 37 37 37 35 34 35 33 33 34 33 32 29 29 30 30 31 33 33 35 35 35 36 36 35 36 34
32 35 26 29 31 33 33 35 35 36 35 36 39 39 38 36 36 35 34 33 33 32 32 33 31 30 29 30 30 29 29 29 29 29 31 31 31 31 30 32 33 33 33 32
32 35 31 29 32 35 34 35 35 36 40 39 40 39 36 35 34 34 32 30 30 30 31 31 29 28 28 28 28 28 28 28 27 28 30 29 29 29 28 29 30 32 32 32
35 31 24 26 32 32 33 35 39 38 37 38 38 36 37 34 33 32 30 30 28 27 28 28 27 26 26 27 28 28 28 27 26 27 28 27 27 27 27 27 27 31 31 31

GFSCGP_sfc_temp_132.txt.gz
Temp
53 44 39 44 46 48 46 43 41 47 54 47 50 52 56 60 56 57 55 58 59 63 70 75 74 68 65 63 65 65 64 65 65 64 65 64 65 65 65 65 69 68 70 69
45 40 50 53 51 48 46 43 42 49 53 49 47 47 55 58 55 59 62 57 60 63 69 71 67 64 64 64 66 65 65 65 64 63 65 65 65 65 67 67 65 67 68 68
38 46 54 51 47 47 45 42 42 42 47 48 45 44 48 55 56 59 61 62 63 64 66 67 66 62 59 60 63 65 64 64 65 66 63 61 63 63 64 64 65 65 66 67
43 50 49 46 45 47 40 48 48 45 41 34 46 34 47 49 52 55 58 59 59 63 67 69 65 57 60 60 63 65 66 65 64 63 61 61 62 64 65 66 67 66 65 66
40 44 44 42 45 48 43 49 45 44 40 35 42 31 43 46 47 50 54 59 59 63 66 65 61 62 60 60 61 63 65 65 63 62 62 61 60 59 60 63 65 65 65 68
43 49 45 44 49 48 50 45 43 41 37 29 39 37 35 45 47 52 59 61 61 63 62 63 64 63 60 59 60 62 64 63 62 62 61 60 61 61 59 61 63 63 63 65
41 41 45 49 42 45 43 36 25 24 25 28 43 38 41 49 51 53 54 57 59 61 61 62 61 61 59 59 61 63 63 61 61 60 60 60 60 61 61 60 62 61 61 62
29 28 40 47 41 37 36 34 22 17 22 26 37 30 40 49 48 50 53 60 59 57 62 62 61 60 60 60 61 61 61 59 60 58 58 59 60 60 61 62 61 63 63 63
29 31 43 46 46 42 36 29 39 28 30 25 31 37 45 43 42 46 49 55 54 52 58 60 60 60 60 59 59 59 59 57 57 57 56 57 57 60 60 62 62 63 64 64
36 27 40 43 45 44 37 42 27 26 12 16 28 29 29 37 37 41 44 46 49 55 56 57 59 59 60 60 59 58 58 56 55 56 55 55 55 57 59 61 62 61 63 63
36 31 32 39 35 31 33 32 33 32 27 22 22 28 38 36 39 38 43 47 47 50 49 51 59 60 60 56 56 56 56 55 53 53 54 53 53 54 56 59 60 61 63 62
38 31 25 30 40 42 39 34 30 23 23 26 27 26 43 40 42 41 39 42 47 49 51 50 56 57 56 55 55 55 54 54 53 52 52 52 53 53 53 55 59 62 62 63
37 28 17 27 32 40 36 38 38 34 30 25 21 25 45 42 41 39 40 43 47 49 50 56 54 55 54 54 54 52 52 50 50 50 49 50 51 51 51 52 55 58 61 62
40 30 27 21 26 31 29 36 38 36 26 28 29 29 38 38 37 37 42 45 48 52 53 53 52 51 50 50 50 49 49 48 48 49 48 48 49 49 49 50 52 55 59 61
36 24 30 31 33 34 34 33 35 33 34 27 34 32 36 39 41 41 44 46 47 47 48 48 48 47 46 46 45 45 45 45 47 47 46 46 47 48 47 47 48 51 53 60
35 21 25 26 33 35 32 31 32 31 31 33 34 32 41 44 46 44 43 44 44 45 46 47 47 46 45 44 42 43 42 43 45 45 45 45 44 44 44 45 45 48 51 55
32 30 27 23 31 31 26 27 31 31 33 33 28 33 39 38 41 39 40 41 41 42 43 44 44 43 43 41 41 38 40 41 41 43 42 42 41 41 41 43 44 44 47 49
31 29 27 24 27 17 29 37 36 32 32 33 34 36 37 37 40 40 42 40 40 41 41 43 43 42 40 39 38 39 39 38 39 39 38 39 39 39 40 41 42 42 44 46
32 30 26 19 23 29 32 32 30 29 29 33 32 34 36 38 42 37 41 42 42 41 40 40 41 40 38 36 36 36 36 36 36 35 35 36 37 38 39 39 40 41 41 43
35 32 22 24 19 15 26 33 38 37 24 32 34 33 34 36 30 33 39 41 39 39 38 36 37 37 35 34 34 33 32 32 31 32 32 34 36 37 37 38 38 40 41 42
21 19 14 18 17 24 31 33 39 22 20 33 34 33 33 32 33 36 39 38 37 35 34 35 34 32 32 33 32 30 29 29 30 31 32 34 36 36 37 37 38 38 40 38
21 18 13 18 9 12 33 35 26 30 34 34 34 33 32 34 34 37 36 34 34 31 32 33 30 30 32 31 30 27 27 29 30 30 31 32 34 35 36 34 35 38 37 35
19 25 19 25 25 32 35 33 34 34 33 33 34 34 34 34 34 34 32 30 31 31 31 32 30 30 30 30 29 26 27 28 29 29 29 31 32 32 32 31 32 34 35 33
29 34 25 25 30 32 33 35 35 35 34 36 38 37 35 32 32 31 32 30 29 30 30 31 28 27 26 27 28 28 28 28 27 26 27 28 27 28 30 30 30 32 33 33
27 34 28 26 31 34 34 34 34 36 38 37 37 36 34 33 32 31 30 29 28 28 27 29 25 26 25 26 26 28 27 27 26 24 25 24 25 27 27 28 28 29 31 33
33 31 22 20 31 31 32 34 38 36 35 35 34 33 34 33 31 31 29 28 27 27 25 26 26 25 25 25 25 27 26 26 25 24 24 24 23 25 25 23 26 31 31 32

GFSCGP_sfc_temp_135.txt.gz
Temp
50 43 40 43 44 46 43 39 39 45 50 44 46 48 53 57 52 52 54 55 55 59 63 65 68 66 68 66 63 65 67 68 68 67 67 66 66 65 65 67 68 68 68 69
42 38 46 49 49 45 43 39 38 43 48 45 43 44 51 54 52 54 56 56 56 57 61 65 65 57 58 59 63 66 68 67 68 68 66 64 65 65 67 66 66 68 68 68
37 43 50 47 43 42 40 39 38 39 42 44 41 41 45 49 52 55 56 57 58 57 59 63 63 54 57 58 59 63 64 64 62 63 62 62 63 63 63 63 64 65 67 67
39 46 45 42 41 41 34 45 43 40 36 29 41 30 44 48 48 52 54 54 54 56 59 63 58 56 59 60 60 61 63 63 64 63 62 62 62 61 64 65 66 65 65 65
38 41 41 38 41 43 38 44 42 41 35 31 39 29 40 44 45 47 51 55 58 57 58 60 59 61 61 61 61 60 61 61 62 62 62 60 59 60 60 63 63 65 64 65
41 47 42 41 45 44 45 40 38 37 33 25 37 30 35 41 41 44 47 50 52 55 57 59 56 59 57 58 58 59 61 60 61 60 61 60 60 60 59 61 63 64 64 63
37 39 42 46 38 41 40 33 23 22 22 25 36 31 33 37 42 41 44 48 49 53 57 58 56 57 56 55 59 61 61 59 59 59 58 58 59 59 59 60 61 63 62 61
27 26 38 45 39 34 34 31 20 13 19 23 35 25 35 43 45 45 48 48 48 49 55 56 59 58 56 56 57 60 60 58 58 58 57 56 57 57 58 60 60 61 61 61
27 28 41 43 42 39 33 28 35 24 29 23 27 33 40 43 42 43 45 45 44 46 48 52 56 56 54 54 55 57 56 56 56 55 55 54 54 55 56 57 59 60 61 62
34 26 38 40 41 40 34 38 24 23 12 14 21 24 24 36 38 41 39 38 43 47 47 50 53 54 54 55 56 55 55 54 54 53 53 52 52 53 54 56 58 59 61 61
33 29 31 36 32 28 30 28 29 28 24 20 19 22 38 38 40 39 40 41 43 45 47 50 52 54 55 55 54 53 53 52 51 51 52 51 51 52 53 53 54 56 59 60
35 30 24 28 38 40 35 31 27 18 16 25 24 26 41 40 38 41 41 44 46 46 47 49 50 51 51 50 50 49 49 49 49 49 50 50 50 51 50 50 51 52 54 58
35 27 17 26 30 36 32 37 36 32 28 23 20 26 41 40 40 41 42 43 45 47 47 46 46 46 46 47 47 47 47 46 47 48 47 47 48 48 48 48 49 50 52 54
40 30 26 20 25 27 26 31 35 33 23 26 27 28 33 36 37 40 41 44 42 42 44 45 44 43 44 45 45 44 43 44 45 46 45 44 44 45 45 46 46 47 48 50
34 23 28 30 32 32 31 30 30 28 30 25 29 27 32 37 40 40 42 42 42 40 40 41 42 43 43 42 42 41 42 42 43 43 43 42 42 43 43 43 44 45 46 48
34 22 25 25 31 31 29 29 30 30 32 31 31 30 38 41 42 40 40 41 40 41 42 43 43 42 41 40 39 40 39 39 40 41 40 40 40 41 41 41 41 43 44 45
29 27 26 23 29 29 24 26 29 31 30 30 26 30 36 36 38 36 37 39 39 40 39 39 40 39 38 37 38 36 36 38 37 37 37 38 38 38 39 40 41 42 42 42
29 28 27 23 27 16 27 36 35 30 29 32 32 34 36 36 39 38 40 38 37 37 36 37 37 37 36 36 36 36 36 35 34 34 34 35 35 36 38 39 40 40 41 41
32 28 25 17 21 27 30 31 29 27 27 31 31 33 34 37 40 34 38 38 36 35 35 34 35 35 34 33 33 33 33 32 32 31 31 32 33 34 36 36 37 38 39 40
32 30 20 22 19 15 25 31 36 36 23 31 33 32 32 34 27 31 34 35 32 32 32 31 32 32 31 30 30 29 29 29 28 29 29 31 33 34 34 35 36 37 38 38
20 18 13 18 7 17 29 32 37 22 19 32 33 32 31 29 32 34 34 32 32 31 31 32 31 29 29 30 28 27 27 26 28 29 30 31 33 33 34 34 34 34 35 38
20 17 12 16 7 9 32 34 25 29 34 33 33 33 31 33 32 33 33 31 31 28 29 30 28 27 28 28 27 25 25 28 29 29 29 29 31 32 33 32 32 32 33 36
15 20 18 21 20 30 34 31 34 34 32 33 33 34 33 32 32 31 30 31 30 28 27 28 26 26 27 27 26 25 26 27 27 27 27 27 29 29 29 29 29 29 31 34
26 35 27 23 28 32 31 35 34 34 34 36 36 34 33 31 32 30 31 28 26 27 26 26 26 25 25 26 27 25 28 27 26 25 24 25 25 27 27 26 29 29 29 30
24 32 27 23 31 32 34 32 34 34 35 34 35 34 31 30 30 29 28 26 25 26 25 25 25 25 24 25 25 26 27 27 24 24 24 24 24 22 22 24 24 27 29 30
30 28 22 19 29 29 32 34 36 34 32 32 31 29 30 29 27 29 28 27 25 24 24 24 24 24 23 23 24 25 26 25 23 23 23 22 21 21 20 19 20 28 31 32

GFSCGP_sfc_temp_138.txt.gz
Temp
46 41 35 36 41 43 40 35 35 40 46 40 42 44 50 50 48 48 51 54 54 57 60 61 63 62 61 60 61 61 67 69 68 67 66 66 65 65 66 67 68 68 69 69
40 34 42 46 44 41 38 36 34 40 45 42 40 43 51 47 49 50 51 51 54 54 57 61 60 59 59 59 57 59 67 69 68 70 69 68 67 67 67 67 67 68 68 69
36 40 47 44 40 39 36 34 34 34 39 40 38 39 42 45 47 52 54 53 54 54 55 60 63 58 56 55 57 58 63 68 69 70 68 64 64 63 63 64 66 67 67 68
37 43 43 39 38 38 32 40 39 37 33 26 39 27 42 43 44 48 47 46 49 51 54 56 59 59 55 56 56 58 62 68 66 67 67 65 63 62 62 65 65 65 66 67
35 40 40 36 38 40 36 41 38 37 32 29 33 26 38 42 35 39 43 46 48 49 51 52 56 59 57 56 56 58 60 60 61 62 63 61 61 61 61 63 63 63 63 65
38 44 41 39 43 41 43 38 35 32 29 22 29 27 26 30 35 39 43 46 47 47 49 51 56 55 53 54 54 56 59 58 61 61 60 61 60 59 59 60 61 63 64 63
36 36 40 44 37 40 38 31 22 20 22 22 33 27 30 36 39 40 42 43 44 46 47 48 49 53 53 53 55 58 58 58 58 58 58 58 59 59 59 59 59 60 62 62
27 27 35 42 37 32 31 29 20 13 17 20 31 22 31 39 42 43 45 44 44 45 47 48 50 52 51 52 53 54 55 55 56 56 55 55 56 56 57 58 58 59 60 60
27 27 39 41 40 37 30 26 33 23 26 21 25 29 37 42 44 43 44 44 42 45 48 49 50 51 51 51 51 52 52 53 52 52 54 53 53 53 53 55 57 58 60 60
32 25 36 38 39 38 33 35 23 22 7 11 16 22 23 34 38 40 42 41 44 45 46 47 51 51 50 51 50 50 50 49 51 52 51 51 50 51 52 53 53 55 58 59
32 29 29 33 30 27 29 27 28 26 22 17 17 20 35 37 38 37 41 42 45 44 44 43 42 44 48 48 48 48 48 47 48 49 49 48 48 49 50 50 50 51 53 55
34 29 22 27 35 38 34 28 25 16 18 22 22 22 39 38 40 41 40 41 42 42 41 41 40 37 40 44 44 45 45 46 47 47 47 46 46 47 47 47 48 49 49 52
34 26 16 25 28 34 29 32 34 30 27 19 17 24 39 39 40 40 38 40 39 39 37 38 37 34 34 38 40 41 43 42 43 44 44 43 43 43 43 44 45 47 48 48
39 29 25 18 25 26 25 29 31 29 22 24 24 28 34 34 36 37 39 40 40 40 38 37 35 33 33 35 36 39 40 40 40 42 42 40 40 41 41 42 43 43 45 46
33 23 27 29 30 29 29 28 27 26 29 24 28 29 31 34 35 37 39 41 37 37 38 38 37 36 36 37 37 38 38 38 38 39 39 38 39 40 40 40 41 42 44 45
31 19 24 24 30 29 27 27 28 30 29 28 30 29 37 39 41 38 38 38 36 34 36 37 37 37 36 35 35 35 36 36 36 36 36 37 37 37 37 38 39 41 43 44
29 28 26 23 28 28 23 27 27 30 28 27 25 29 36 35 36 33 34 35 34 34 34 34 34 34 35 34 34 32 34 35 34 34 34 34 34 34 35 38 38 39 40 41
28 28 27 22 26 14 25 33 32 29 29 31 32 33 34 34 35 33 34 33 32 32 31 31 32 32 33 33 32 32 33 33 32 31 31 32 32 33 36 36 36 37 38 38
31 28 24 16 19 25 27 30 28 27 26 31 30 33 34 34 35 31 34 34 31 30 31 31 32 31 32 31 31 30 30 31 30 29 29 30 32 32 34 33 34 35 35 36
30 29 20 21 17 14 25 29 34 34 22 32 32 31 31 31 25 29 31 32 30 30 30 30 30 30 29 29 29 28 28 28 27 28 29 31 31 32 31 33 33 33 34 34
19 17 12 21 6 16 28 31 35 22 20 32 32 31 30 27 30 31 32 32 33 31 28 29 29 27 27 28 27 25 26 26 28 29 29 30 30 31 31 31 31 31 31 33
13 16 10 15 6 9 32 32 25 27 33 33 32 33 30 31 33 32 32 31 29 27 27 27 27 26 27 27 26 25 25 28 28 29 29 28 28 29 30 29 29 29 30 30
16 18 16 19 19 29 34 31 33 34 32 33 33 32 32 31 31 31 29 29 27 26 25 26 26 25 26 26 25 24 26 28 27 27 26 27 27 27 27 26 26 27 28 28
24 35 28 23 27 29 30 34 33 33 32 34 34 33 32 28 30 29 28 25 24 25 25 25 24 24 24 25 26 25 27 27 26 24 22 23 21 23 22 22 23 23 25 26
22 32 29 24 29 31 33 34 32 33 33 32 33 31 28 27 26 26 25 26 24 25 24 24 23 24 23 23 24 25 27 26 25 23 20 20 20 18 19 21 20 22 23 27
28 27 22 20 26 24 28 31 34 31 29 30 29 27 27 26 24 25 25 25 25 23 23 23 23 23 22 22 23 24 26 25 23 21 20 20 19 18 18 19 20 27 28 30

GFSCGP_sfc_temp_141.txt.gz
Temp
52 50 46 47 48 48 46 42 42 47 52 49 49 50 54 59 59 59 61 63 62 62 66 69 69 70 71 71 71 72 71 72 73 70 68 67 68 70 71 71 71 71 71 72
50 44 49 50 49 46 45 43 42 47 50 49 49 49 55 57 58 59 55 54 55 58 61 63 64 66 67 68 70 70 71 71 75 74 72 71 71 69 69 68 68 69 69 70
44 47 50 48 44 43 43 39 39 39 45 48 47 49 50 56 54 55 56 56 57 56 56 58 60 61 64 66 68 70 72 70 74 75 74 72 70 69 65 65 66 67 68 68
46 49 46 44 42 43 39 43 42 42 41 36 48 35 48 48 49 51 53 54 55 56 57 58 58 59 61 63 67 68 69 70 72 74 72 68 67 65 67 68 68 68 68 68
43 43 42 41 41 44 40 45 43 43 41 38 40 36 45 44 43 46 49 52 54 54 55 55 57 58 60 62 64 65 67 69 72 73 72 67 67 69 68 68 70 70 71 71
43 50 47 45 46 44 46 42 42 39 38 31 33 33 38 40 40 45 49 50 51 52 53 55 58 59 60 63 64 64 63 62 64 65 65 67 69 66 66 65 64 65 68 68
40 41 46 47 42 44 43 39 32 29 30 29 36 34 39 45 48 47 47 49 50 52 52 51 50 55 58 61 60 58 60 57 58 60 62 64 66 62 63 63 65 66 64 64
33 31 40 46 42 38 38 37 29 18 22 27 36 29 39 48 51 51 51 51 51 51 46 46 42 46 50 52 54 53 55 57 58 59 58 60 63 63 62 59 62 65 66 67
32 32 43 44 45 43 36 33 38 29 30 25 31 37 45 48 48 47 47 45 45 42 42 42 40 41 42 44 47 50 54 55 56 56 57 57 58 58 55 57 59 59 62 64
36 29 39 42 45 43 40 41 29 29 17 16 27 29 33 39 39 43 43 39 40 40 40 39 38 39 42 41 44 47 49 49 50 54 54 54 55 56 54 55 54 56 58 60
39 35 33 38 36 34 35 33 32 31 28 22 20 30 39 37 39 40 37 38 37 37 36 36 35 36 37 40 40 43 45 45 48 50 50 50 50 51 50 51 52 53 55 56
39 34 28 32 40 41 39 34 31 25 22 27 26 29 41 41 41 39 37 39 38 38 36 36 34 34 34 34 35 37 41 43 46 49 48 48 47 47 47 49 50 50 51 53
39 31 25 29 34 37 35 36 36 32 29 26 22 29 45 42 41 39 37 38 37 37 37 35 36 33 32 32 32 34 36 38 41 45 45 45 44 45 45 47 47 49 49 50
42 33 29 26 29 33 30 33 35 32 26 29 29 32 37 36 37 37 39 39 39 37 36 35 34 33 32 32 32 32 33 36 37 40 41 41 42 43 43 45 45 46 47 49
38 28 31 32 34 34 32 32 32 29 31 26 32 30 32 36 37 36 38 38 38 37 37 36 34 34 35 32 32 33 34 36 38 38 39 39 41 41 41 41 44 45 46 47
35 27 28 27 33 32 29 31 31 32 33 31 32 31 35 40 41 36 36 36 34 35 35 35 34 34 34 33 32 32 34 35 37 37 36 38 38 39 39 41 42 43 43 43
31 30 28 25 32 31 25 30 31 31 29 28 27 31 37 36 36 32 34 34 33 33 33 33 33 32 33 32 33 31 32 35 35 35 35 35 36 36 37 39 39 40 39 40
30 31 30 25 29 17 30 36 35 31 32 32 32 34 36 36 38 34 34 33 32 31 31 32 33 32 33 32 32 31 33 32 32 32 32 33 34 35 37 37 37 37 38 37
36 32 27 22 23 29 29 33 30 27 27 32 31 34 36 37 37 31 35 34 33 33 32 32 33 33 33 31 31 30 31 32 31 30 30 32 33 33 34 34 34 34 34 35
34 33 29 25 18 18 29 33 36 34 25 32 33 33 32 34 28 31 33 35 34 33 33 32 32 33 32 31 31 31 30 31 29 30 31 32 32 31 32 32 33 33 33 33
25 24 23 23 19 25 32 34 37 23 24 33 33 32 31 28 30 33 35 34 34 33 31 32 32 31 31 32 31 29 29 28 30 31 31 31 32 31 32 32 32 32 32 32
24 22 22 21 16 19 34 34 29 31 34 33 33 33 31 32 34 34 33 33 32 31 31 31 30 30 31 31 30 28 27 30 30 31 31 31 31 31 32 31 32 32 32 31
23 27 27 27 29 31 36 32 34 34 32 33 34 34 33 31 31 32 31 31 30 30 30 31 29 29 31 30 30 27 28 29 29 29 29 29 30 30 30 28 28 28 30 29
29 35 29 28 31 33 33 36 36 35 34 35 35 34 32 29 30 29 29 29 29 29 29 29 29 28 28 29 29 29 29 29 28 26 24 25 25 26 27 28 29 27 27 28
32 34 31 29 31 33 33 35 35 35 34 34 33 32 29 29 28 28 29 28 29 29 29 29 28 27 27 29 29 29 28 28 27 25 25 25 26 25 25 27 27 27 29 28
34 32 29 29 32 32 32 33 36 34 32 31 30 29 29 29 27 28 27 28 27 26 27 27 27 27 27 27 27 28 28 27 25 25 25 25 24 25 25 26 26 29 28 29

GFSCGP_sfc_temp_144.txt.gz
Temp
63 60 57 57 57 56 55 53 54 59 62 57 59 60 65 69 69 67 67 68 68 70 74 76 76 76 76 76 77 78 79 81 81 83 80 80 80 81 82 84 82 82 79 76
58 54 55 57 56 55 54 52 53 57 59 56 58 58 63 65 62 64 64 66 67 68 70 72 73 74 73 74 75 76 78 80 83 84 85 83 82 82 82 82 81 81 79 77
53 54 56 54 53 52 51 48 49 48 55 60 56 58 58 60 63 64 65 66 66 66 65 67 68 69 70 71 71 74 76 78 81 82 84 84 81 79 76 73 75 79 78 78
54 56 53 52 49 51 48 50 49 50 49 47 56 45 58 57 58 59 61 62 63 63 64 64 63 61 62 67 71 73 74 77 80 81 79 79 78 75 75 75 72 73 76 76
51 50 50 49 48 51 48 52 50 50 49 49 51 45 54 54 51 54 58 59 61 62 62 58 57 55 56 56 60 71 73 75 77 78 78 78 78 78 76 71 68 68 72 74
51 56 53 50 50 50 52 49 52 52 49 41 44 43 52 50 51 53 57 58 57 52 49 51 53 54 50 49 50 54 60 63 64 73 77 75 73 74 74 73 66 67 68 69
47 48 52 53 49 51 51 48 43 40 40 40 44 41 48 53 55 54 52 49 45 44 43 42 42 45 47 44 44 46 51 55 57 58 62 70 74 73 68 70 71 70 67 68
43 38 48 51 48 45 45 44 39 27 34 38 46 37 48 55 57 56 52 46 45 41 41 40 40 40 41 40 42 42 45 48 52 55 56 58 60 62 67 68 71 74 73 67
42 40 49 50 51 49 43 42 45 35 38 33 42 45 53 55 52 53 47 42 41 43 43 41 43 42 39 37 38 40 42 43 46 50 53 56 57 61 64 61 62 64 62 63
45 38 46 48 51 49 46 49 36 38 22 23 36 37 42 44 44 49 40 38 40 41 43 43 42 41 39 37 36 37 41 42 42 46 49 52 55 60 60 60 60 62 62 64
48 43 40 45 43 42 41 40 40 39 37 29 28 37 46 41 41 40 40 41 41 41 39 39 38 38 39 39 36 35 37 40 41 42 46 48 52 55 58 58 59 60 62 62
48 43 38 40 46 48 46 41 37 31 28 33 31 35 48 47 46 41 40 42 44 44 42 40 38 36 35 35 35 34 34 36 40 37 41 44 50 52 52 56 57 58 59 60
46 40 32 34 40 44 41 43 42 37 34 30 27 36 51 49 47 44 41 44 45 46 45 42 41 34 33 32 33 33 33 34 37 42 40 41 43 46 49 52 54 56 57 58
47 42 38 36 37 42 36 40 42 39 31 35 36 39 45 42 40 41 41 44 45 45 44 42 41 37 34 33 32 32 32 33 35 42 44 42 42 44 47 50 52 51 54 54
45 35 39 40 41 41 39 39 41 37 39 32 38 38 41 40 39 40 42 43 43 42 42 42 41 40 38 37 35 34 33 36 36 39 40 40 42 45 47 48 49 51 51 52
44 34 34 33 39 39 36 40 40 40 40 40 40 39 42 46 46 39 41 40 39 40 40 41 41 40 39 37 36 35 34 34 38 39 40 42 43 44 45 45 45 48 48 49
39 38 35 31 38 37 31 37 38 38 37 33 31 38 43 41 41 36 37 39 37 38 39 39 39 39 39 37 36 34 34 35 36 37 39 40 40 40 41 44 45 44 43 45
39 37 37 33 35 23 35 44 41 36 39 38 37 39 40 41 42 38 40 38 37 38 39 39 39 39 40 40 37 35 36 35 34 34 35 36 36 37 37 40 42 42 41 40
44 40 34 29 31 35 34 38 37 33 33 38 37 40 42 43 43 34 40 40 38 39 39 40 40 40 41 40 38 36 36 35 35 33 34 36 36 37 36 37 37 38 40 40
41 41 35 32 22 23 36 39 42 40 30 37 39 38 37 39 33 36 39 40 40 40 40 39 40 41 40 39 39 37 36 35 34 34 35 37 37 38 38 38 37 40 41 41
32 32 29 32 28 32 40 41 43 27 28 38 38 36 34 31 33 36 39 40 40 40 40 40 40 39 39 39 38 37 36 33 34 35 37 37 38 37 37 38 40 40 39 39
30 29 29 30 25 24 43 40 33 35 39 38 35 36 33 36 37 39 39 39 39 39 39 39 38 38 40 39 37 36 34 35 35 36 36 36 37 36 37 37 38 37 37 35
29 33 34 34 34 39 42 39 39 38 37 37 38 38 37 37 37 38 38 38 38 38 38 38 37 37 39 39 38 34 35 35 33 34 33 33 35 35 35 34 33 33 32 32
37 40 33 32 36 40 38 39 40 41 38 39 40 39 38 35 37 36 38 38 37 38 37 37 37 36 36 37 36 36 34 34 32 30 29 30 30 30 31 32 32 31 29 29
40 40 35 32 37 39 38 40 40 39 40 39 39 38 35 35 36 36 36 37 36 35 36 36 35 34 34 35 35 36 34 33 31 30 30 30 30 30 30 31 31 30 31 28
44 39 34 36 37 37 37 37 41 39 38 38 37 36 36 34 34 34 34 34 32 31 32 32 32 32 32 33 33 33 33 31 29 29 30 30 29 30 30 30 30 33 31 31

GFSCGP_sfc_temp_147.txt.gz
Temp
69 63 62 63 64 62 61 60 59 65 69 62 62 64 69 72 73 70 71 71 71 72 76 77 76 75 71 71 73 73 76 78 81 83 82 82 80 83 85 87 86 86 85 77
63 59 63 63 62 60 60 58 58 62 66 62 63 63 70 69 67 68 68 68 69 70 71 71 70 68 65 65 64 65 68 75 79 82 85 84 85 86 86 86 84 86 85 81
60 61 62 60 59 57 59 57 55 55 60 64 63 61 62 66 67 67 68 68 68 66 64 64 64 62 63 61 59 60 61 65 74 78 82 84 83 84 83 83 84 84 84 83
63 65 59 58 57 57 52 57 55 55 54 51 62 48 61 64 63 63 64 64 61 59 60 59 59 58 59 59 58 56 56 57 65 69 77 78 79 80 83 83 84 84 83 82
57 57 56 55 57 56 55 57 55 55 53 53 56 52 58 61 56 58 59 57 58 57 56 55 55 56 57 54 54 52 51 52 53 55 63 68 74 80 82 84 81 80 80 78
58 63 59 58 57 56 57 54 56 56 53 44 53 51 55 56 54 56 56 55 54 53 54 55 56 57 56 53 50 49 46 47 47 48 53 56 60 73 78 81 80 78 77 76
53 55 58 58 53 57 56 52 45 44 44 44 53 47 53 57 57 52 51 52 53 54 53 52 53 53 53 51 48 44 42 43 44 44 48 50 53 58 70 77 77 74 73 71
47 43 54 58 55 52 51 50 42 33 39 45 52 43 52 60 60 54 54 55 53 54 54 54 52 50 50 49 46 44 39 39 42 43 44 49 49 51 64 72 73 72 65 62
50 48 56 55 56 55 50 45 52 41 44 38 46 53 58 60 54 55 48 47 46 50 52 52 50 47 45 44 44 43 40 37 39 41 42 46 46 49 52 57 62 62 62 64
54 44 53 53 55 54 52 55 40 42 27 30 43 44 46 48 47 50 47 46 46 50 50 50 47 44 45 43 44 43 41 37 37 39 40 42 45 47 51 54 56 59 61 62
55 50 47 51 47 48 46 44 45 45 43 33 32 42 50 47 48 47 49 49 48 49 51 50 47 47 46 44 42 41 40 38 35 36 40 41 41 45 48 51 55 59 62 62
55 50 43 45 54 55 53 47 44 34 34 38 35 37 55 52 50 50 48 49 50 51 52 50 48 46 42 41 40 38 38 37 36 35 38 39 38 42 45 50 54 58 60 61
52 46 39 39 46 49 46 49 47 42 38 34 30 38 52 46 47 50 48 49 50 51 52 50 48 39 35 35 36 37 35 36 36 37 37 38 39 37 42 46 51 55 57 59
51 47 43 39 41 48 41 46 48 45 35 38 39 43 49 48 47 46 47 47 49 49 50 49 46 44 37 37 35 37 37 35 35 36 36 38 38 38 40 45 47 50 54 55
49 39 44 46 46 46 45 45 46 43 43 37 42 43 46 45 46 44 48 46 47 47 47 47 45 45 45 43 42 40 39 38 35 36 39 40 41 42 42 43 44 46 47 53
50 38 40 38 45 46 42 46 46 46 46 46 45 43 49 50 50 47 47 43 44 45 46 46 46 45 45 43 43 41 38 39 39 36 37 41 42 42 43 44 46 46 47 49
44 41 38 35 43 43 35 43 45 45 44 39 36 44 48 45 44 44 43 42 42 44 45 44 44 44 44 43 44 41 39 41 40 38 38 40 41 41 41 43 44 45 45 46
42 41 41 35 38 25 41 51 49 42 44 48 44 44 44 45 46 46 44 44 43 44 44 44 45 44 45 45 44 42 42 41 39 38 37 38 39 40 42 43 42 43 45 43
49 43 36 31 34 39 40 44 42 41 41 46 42 44 45 47 48 39 45 46 44 44 46 45 46 45 45 45 44 42 42 41 38 37 37 38 39 39 39 39 39 41 42 43
47 45 37 36 30 27 40 45 49 47 32 44 43 41 40 44 37 41 44 45 45 46 46 45 45 46 45 45 44 42 41 40 37 35 37 39 40 39 39 40 40 41 41 42
35 36 31 34 31 36 46 48 49 30 31 42 42 42 37 35 38 42 44 43 46 45 45 46 45 44 44 45 43 40 41 37 37 37 38 39 39 39 41 40 41 40 40 39
32 31 32 35 29 27 50 46 36 40 42 41 41 40 36 40 43 43 43 44 45 44 45 45 43 43 44 45 42 40 39 39 38 37 37 37 37 38 39 37 37 38 37 34
31 35 36 38 37 46 49 45 45 45 42 40 41 41 43 43 42 42 43 44 44 44 44 44 42 42 43 43 42 38 38 38 36 35 33 34 35 35 34 33 33 33 33 32
43 47 35 37 41 45 44 46 46 45 42 43 45 45 44 41 41 41 43 44 44 44 41 42 41 40 39 41 40 39 37 36 34 31 31 32 31 31 32 34 33 32 31 30
44 45 40 36 42 43 44 45 43 42 43 43 45 43 41 40 40 40 40 41 41 39 39 39 37 36 36 38 37 37 35 34 31 30 31 31 31 31 31 32 32 31 32 30
49 44 37 38 41 40 43 42 43 40 41 44 43 42 42 41 39 39 38 38 35 34 34 33 33 33 33 34 34 34 33 31 29 28 30 30 30 30 30 30 30 34 33 32

GFSCGP_sfc_temp_150.txt.gz
Temp
68 61 57 65 64 63 61 59 58 64 70 64 61 62 66 72 70 68 68 67 67 67 68 67 65 64 63 62 60 59 58 58 60 63 63 69 73 76 77 78 79 79 79 75
64 57 66 66 64 62 61 57 57 64 68 63 61 60 67 69 67 67 66 65 60 60 61 61 61 60 59 58 57 57 56 56 57 58 58 62 69 73 77 78 78 79 78 77
58 63 66 63 62 58 59 57 57 57 61 62 60 57 63 66 67 67 66 61 60 57 56 57 58 57 57 54 53 54 54 53 55 53 55 56 60 66 71 73 75 78 79 78
63 69 62 60 58 61 53 61 59 56 53 46 61 44 59 61 61 62 57 57 56 55 57 57 56 56 56 54 53 52 52 52 53 52 50 49 51 53 58 63 75 77 77 78
58 61 57 56 59 61 55 58 55 55 51 50 52 48 55 62 57 53 53 54 55 55 55 54 55 56 57 55 52 51 50 49 49 48 48 48 48 50 53 58 62 73 76 77
61 65 62 59 60 58 59 54 55 54 51 39 49 50 53 57 56 52 52 53 54 54 55 56 57 57 54 52 50 49 48 47 46 46 46 45 45 47 49 52 58 65 74 74
56 56 61 60 54 59 55 49 40 41 39 39 55 49 53 53 53 52 51 52 54 55 54 54 53 52 50 48 47 46 45 44 44 43 44 44 43 46 48 50 54 57 66 68
48 43 56 60 55 53 53 50 39 32 37 40 53 43 47 53 53 52 52 53 51 51 53 53 53 50 48 48 46 44 43 42 43 41 41 43 43 44 46 48 52 55 62 67
50 50 59 59 60 56 52 44 53 42 43 37 44 53 55 54 52 51 50 51 49 52 52 53 52 50 48 46 45 43 41 41 42 41 40 41 42 41 44 46 50 53 56 60
54 43 54 55 56 56 51 56 40 41 28 29 41 45 42 47 48 51 50 49 50 52 52 53 52 50 48 46 45 44 42 39 40 40 40 39 41 41 41 45 46 49 53 55
55 50 48 53 47 48 47 44 46 46 42 32 31 38 51 48 49 47 48 50 50 50 51 51 50 50 47 46 43 42 41 39 38 39 39 38 38 40 40 44 45 46 50 54
55 50 42 46 56 58 54 49 46 34 34 39 36 36 52 49 50 50 48 50 51 52 51 51 49 47 42 41 41 40 39 38 38 38 38 38 38 38 39 40 44 44 45 52
53 44 37 43 48 52 45 49 50 44 39 32 29 35 51 48 48 50 48 49 50 50 51 49 48 40 35 34 36 39 38 38 37 37 37 37 37 37 37 37 41 44 44 48
52 46 42 37 43 48 41 46 49 44 33 35 37 41 42 44 46 46 47 49 48 49 49 48 46 44 37 36 36 39 38 38 38 36 36 35 36 36 37 37 38 41 44 45
49 38 44 46 49 48 47 45 47 44 44 36 41 42 44 46 47 48 49 48 46 46 47 47 46 45 44 43 42 42 40 40 40 37 34 34 39 38 40 38 38 38 41 44
47 37 40 37 47 47 43 46 47 47 46 45 46 44 49 51 51 48 46 45 44 45 46 46 46 45 44 44 43 42 40 41 41 39 37 35 36 40 40 41 41 40 39 42
42 40 38 32 43 42 35 42 45 46 48 43 36 45 49 46 46 45 44 44 44 44 45 45 44 44 44 43 43 41 41 42 40 38 38 39 38 37 39 41 41 41 41 42
42 40 39 34 38 25 43 52 51 46 47 48 48 48 47 47 48 48 46 45 44 44 44 45 44 44 44 45 43 42 43 41 39 37 37 38 39 38 39 39 39 40 40 41
49 43 35 30 32 39 42 45 44 42 41 50 47 46 47 49 48 44 47 47 44 45 46 45 45 45 45 44 43 41 41 40 37 36 36 37 38 37 38 37 37 38 39 38
48 46 37 34 28 25 38 47 52 48 32 49 46 44 43 44 35 35 45 46 44 46 46 45 45 45 44 44 43 41 39 37 35 35 36 37 37 36 36 36 36 37 37 37
36 36 30 32 30 36 46 49 50 30 32 44 44 43 40 35 38 43 46 44 47 47 46 46 45 43 43 43 42 38 39 34 35 36 36 35 36 35 36 34 35 35 34 34
32 31 30 33 29 27 51 47 37 40 44 44 42 41 39 40 43 45 45 44 45 45 45 44 42 41 43 42 40 38 36 36 35 35 34 34 34 35 35 33 33 34 33 31
31 35 34 36 36 47 51 45 47 47 44 42 41 42 43 44 44 43 43 43 44 44 42 42 40 39 40 40 39 36 35 35 33 32 32 32 34 33 33 32 31 31 31 29
42 46 35 38 42 46 45 48 48 47 44 45 45 46 45 42 42 42 41 42 41 40 39 39 37 35 35 37 37 36 34 33 31 29 29 30 30 30 31 31 31 30 29 27
42 45 40 37 43 46 46 47 46 44 44 44 46 45 43 42 41 40 39 39 37 35 35 34 32 31 32 33 33 34 32 31 28 28 28 28 29 29 29 30 30 29 30 29
49 43 37 36 42 40 44 44 45 42 41 44 44 44 44 43 40 39 37 35 31 30 30 29 29 28 29 30 30 30 30 29 27 26 27 28 28 28 28 28 28 33 33 33

GFSCGP_sfc_temp_156.txt.gz
Temp
55 46 43 49 51 53 53 49 46 49 54 52 46 46 52 52 49 46 45 46 47 48 51 52 50 49 48 48 47 47 47 47 46 44 43 44 43 46 50 52 55 55 56 57
48 43 53 56 55 54 51 47 46 52 55 51 44 44 53 50 46 46 45 44 44 46 48 50 48 46 45 44 45 45 45 45 46 44 43 44 44 46 48 51 51 52 53 53
44 51 58 56 53 51 49 46 45 46 49 48 45 43 48 47 48 48 47 46 46 45 45 47 46 43 42 42 42 44 44 45 45 44 43 43 44 45 44 44 46 49 51 53
49 57 55 52 52 52 43 51 50 46 42 36 45 32 41 43 43 44 44 42 42 44 46 46 43 42 42 40 40 41 43 43 45 43 42 40 40 39 43 43 45 47 50 51
48 49 50 48 51 54 46 50 47 44 38 34 39 33 36 42 38 39 41 43 42 43 43 42 41 43 41 41 39 39 41 42 42 41 41 41 39 39 42 43 43 45 48 50
50 53 52 50 52 51 52 47 43 40 37 28 37 36 33 35 39 41 42 43 44 43 43 42 43 43 41 39 38 37 38 39 40 40 40 39 40 39 39 40 41 43 44 47
46 48 50 54 47 48 46 39 28 27 26 27 42 36 33 40 43 43 40 41 42 42 42 40 40 40 40 39 37 40 38 38 38 38 39 38 40 40 39 39 40 41 41 44
37 35 47 52 48 44 42 40 28 25 24 28 41 28 32 42 44 44 44 43 44 42 42 41 41 38 38 38 37 35 36 37 37 37 37 37 40 40 40 40 39 40 41 42
38 40 48 51 52 51 43 36 43 33 31 27 31 34 41 43 41 42 41 42 39 40 41 41 40 39 38 37 36 35 35 35 36 36 36 36 37 39 39 39 40 39 40 42
47 37 46 48 51 49 45 46 32 29 23 22 26 27 27 36 39 42 39 39 39 41 43 42 39 39 38 36 36 35 35 35 35 34 35 37 35 37 39 39 39 39 38 39
48 41 39 46 42 40 39 37 38 36 29 24 23 26 40 40 41 39 39 41 40 41 41 39 39 38 37 36 35 34 34 34 33 33 34 34 35 37 38 38 38 38 38 39
48 41 34 40 48 49 44 39 35 22 25 23 22 26 41 40 41 41 41 43 42 42 40 39 38 36 35 34 34 33 34 33 34 34 34 34 35 37 37 36 37 38 37 38
46 36 28 34 39 43 39 42 41 33 29 27 19 26 42 42 40 42 39 41 42 41 41 39 38 33 30 31 33 34 34 33 34 35 35 35 35 35 35 36 37 37 37 37
48 39 36 33 35 37 34 39 39 36 24 28 27 32 35 37 38 39 40 40 40 41 41 39 37 35 31 31 29 31 32 33 34 35 35 34 35 36 36 36 36 35 37 36
42 34 37 38 41 41 39 39 39 35 35 29 34 36 38 39 39 39 41 41 41 41 41 40 37 36 36 35 34 34 34 34 34 34 34 34 36 36 37 37 35 35 35 35
39 27 34 31 38 40 36 39 39 40 39 38 38 35 40 41 40 38 39 39 39 39 39 40 39 38 37 37 35 35 34 34 35 34 34 35 35 35 35 35 35 36 34 34
35 33 30 28 36 37 30 35 39 40 40 38 30 36 40 38 39 36 37 38 37 38 38 38 37 37 36 35 36 33 33 34 33 33 34 33 34 34 34 35 34 34 33 34
33 33 30 27 30 21 35 44 45 40 41 41 39 39 40 38 36 36 37 35 36 37 37 37 35 35 34 34 34 33 33 32 32 30 31 32 32 33 34 33 32 32 33 32
40 33 27 23 24 31 36 40 39 38 33 39 38 38 37 37 35 32 39 38 37 37 36 34 34 34 33 32 33 32 30 30 30 29 29 31 31 31 32 30 30 32 32 32
40 36 28 25 21 16 30 39 45 44 23 37 39 36 36 36 26 26 36 37 37 35 34 33 33 33 32 31 32 30 28 28 27 28 29 30 31 31 31 30 30 31 32 30
27 25 21 23 14 26 38 43 45 29 26 36 36 34 32 26 28 34 36 35 35 34 33 33 32 30 29 31 30 27 26 25 27 29 29 30 30 31 32 29 30 29 30 29
23 21 19 21 15 18 43 42 33 32 36 35 34 33 33 34 35 35 34 32 32 30 30 31 28 28 29 29 28 25 24 27 28 28 28 28 28 29 30 28 28 28 28 27
23 25 23 26 25 35 38 38 39 38 35 34 34 36 37 35 34 33 30 29 29 28 27 28 26 26 26 27 27 24 25 26 27 26 25 25 27 28 27 26 26 26 27 26
32 36 26 29 33 35 36 38 39 39 36 37 38 37 36 33 33 29 28 26 26 25 24 25 24 23 23 25 27 25 26 26 25 24 21 22 22 25 23 25 25 25 24 24
32 35 30 28 34 37 37 37 37 37 38 38 39 37 34 32 29 27 25 25 24 24 23 23 22 23 22 24 25 25 25 24 24 23 20 20 22 16 19 22 17 23 23 27
36 32 26 25 34 33 34 35 38 36 37 39 34 32 33 31 27 26 23 24 23 22 22 21 22 22 22 23 24 23 24 23 22 21 20 20 21 19 20 17 18 27 28 29